[{"header": {"dx": 0.06612293990616946, "dy": 0.0552356325346848, "nx": 98, "ny": 59, "la1": 35.046912555036876, "la2": 31.78801023549047, "lo1": -121.43107172385933, "lo2": -114.95102361305473, "refTime": "2026041603", "parameterCategory": 1, "parameterNumber": 2}, "data": [10.73, 11.02, 11.02, 11.1, 11.4, 11.1, 10.77, 10.76, 10.75, 9.82, 9.48, 8.22, 6.68, 4.22, 3.74, 2.17, 2.24, 2.24, 2.24, 2.24, 2.12, 2.54, 3.04, 4.47, 4.47, 2.54, 0.0, -1.6, -1.4, -0.76, -0.65, 0.0, 0.0, 0.65, 1.2, 1.61, 2.21, 2.86, 2.86, 2.53, 2.51, 3.79, 5.59, 7.64, 9.67, 12.13, 14.11, 11.34, 5.81, 3.79, 5.06, 6.08, 7.07, 8.05, 8.63, 9.6, 10.27, 10.95, 10.95, 10.95, 10.25, 9.83, 9.33, 9.33, 9.54, 10.02, 10.49, 10.49, 9.83, 9.33, 9.33, 9.33, 10.02, 9.72, 9.7, 10.16, 10.25, 11.15, 11.18, 7.6, 3.13, 2.12, 2.12, 2.17, 2.6, 2.12, -0.0, -0.79, -0.63, -0.0, -0.0, 0.7, 1.16, 1.84, 2.15, 2.53, 2.53, 2.53, 10.73, 11.02, 10.74, 10.74, 11.1, 11.1, 11.08, 10.47, 10.45, 10.43, 9.5, 8.53, 6.39, 4.46, 5.81, 5.2, 2.24, 2.24, 2.24, 1.79, 1.79, 1.79, 2.68, 3.13, 4.02, 3.04, 0.71, -1.6, -2.07, -1.6, -1.16, -0.61, 0.0, 0.0, 1.2, 1.88, 2.53, 3.22, 3.22, 2.84, 3.48, 5.06, 6.64, 8.6, 10.86, 12.89, 10.8, 4.47, 2.79, 4.01, 5.09, 6.44, 7.03, 7.85, 8.67, 9.49, 10.01, 10.75, 10.75, 10.75, 10.45, 9.58, 9.54, 9.54, 9.54, 10.02, 10.02, 9.58, 9.75, 9.75, 9.83, 9.33, 9.54, 9.72, 9.7, 9.7, 9.36, 11.15, 11.18, 7.6, 3.13, 2.12, 2.12, 2.17, 2.6, 2.12, -0.0, -0.79, -0.63, -0.0, -0.0, 0.7, 1.16, 1.84, 2.15, 2.53, 2.53, 2.53, 10.74, 10.74, 10.74, 10.74, 10.74, 11.4, 11.1, 10.77, 10.45, 10.43, 9.5, 7.61, 6.01, 5.09, 4.4, 4.66, 3.13, 2.68, 2.17, 2.12, 1.6, 1.6, 2.0, 2.54, 2.54, 3.2, 0.71, -0.65, -2.41, -2.3, -2.3, -1.16, -0.61, 0.0, 1.2, 2.21, 2.84, 3.84, 3.84, 4.46, 5.0, 6.92, 8.53, 9.56, 9.92, 8.63, 4.92, 3.07, 4.11, 4.81, 5.46, 6.4, 6.94, 7.89, 8.06, 9.54, 10.02, 10.93, 10.93, 10.49, 10.02, 9.11, 9.11, 9.54, 9.11, 9.11, 9.33, 9.75, 9.83, 9.75, 9.83, 9.83, 10.02, 9.54, 8.36, 8.82, 9.36, 11.15, 10.28, 6.26, 2.68, 1.7, 2.12, 2.6, 2.17, 0.71, -0.63, -1.47, -0.73, -0.0, 0.61, 0.61, 1.2, 1.61, 1.61, 1.88, 1.88, 1.84, 10.36, 10.74, 10.74, 10.74, 10.74, 10.76, 11.1, 11.08, 10.76, 10.13, 9.5, 7.96, 6.53, 4.46, 3.2, 3.74, 3.95, 3.47, 2.12, 2.12, 2.12, 2.0, 1.9, 2.21, 2.23, 1.58, 0.0, -0.65, -1.6, -2.3, -2.29, -2.29, -1.55, 0.0, 0.76, 2.53, 2.95, 4.89, 5.37, 5.59, 6.58, 7.59, 7.68, 7.03, 5.64, 4.87, 4.46, 4.46, 5.09, 5.43, 6.0, 6.79, 7.28, 7.71, 8.36, 8.82, 9.72, 10.16, 10.6, 10.16, 9.54, 9.11, 9.54, 9.54, 9.33, 9.33, 9.08, 9.34, 9.45, 9.05, 9.2, 10.01, 10.43, 9.46, 8.38, 8.05, 8.94, 11.18, 10.73, 4.92, 1.7, 1.6, 2.17, 2.6, 0.57, -0.7, -1.47, -1.55, -0.59, -0.0, 0.65, 0.65, 1.2, 1.24, 0.65, 0.61, 1.13, 1.27, 10.36, 10.36, 10.36, 10.47, 10.76, 10.76, 10.76, 11.1, 10.47, 10.13, 9.19, 7.6, 6.14, 4.11, 3.83, 4.22, 3.74, 3.04, 2.4, 1.9, 1.9, 1.9, 1.58, 1.6, 2.23, 0.71, 0.0, -1.13, -0.99, -0.79, -1.55, -2.2, -2.26, -0.76, 1.01, 3.4, 3.4, 5.72, 5.86, 5.21, 5.37, 5.05, 4.41, 4.92, 5.16, 5.34, 5.05, 4.84, 5.43, 5.82, 5.86, 6.98, 7.42, 7.45, 7.89, 8.46, 8.82, 9.26, 10.02, 9.58, 9.11, 9.54, 9.54, 9.33, 9.33, 8.82, 8.55, 8.05, 8.32, 9.3, 9.9, 10.87, 11.6, 11.21, 10.45, 8.94, 8.46, 9.26, 8.94, 5.32, 1.7, 1.34, 1.79, 0.95, -1.2, -2.51, -1.84, -1.16, -0.65, -0.0, -0.0, -0.0, 0.65, -0.0, -0.0, -0.0, 1.23, 1.41, 10.1, 10.1, 10.1, 10.1, 10.76, 10.76, 10.76, 10.76, 10.47, 9.84, 8.87, 6.97, 5.49, 5.15, 3.84, 3.83, 3.45, 3.83, 3.84, 3.22, 2.47, 0.78, 0.0, 0.0, 0.71, 0.99, 0.0, -1.05, -0.96, -0.87, -0.7, -0.73, -0.72, 0.0, 1.4, 2.23, 3.27, 5.59, 5.37, 2.79, 1.9, 2.54, 4.47, 5.81, 6.07, 5.43, 5.09, 5.09, 5.46, 6.0, 6.28, 6.55, 6.55, 6.98, 7.45, 8.36, 8.63, 9.11, 9.83, 10.32, 10.02, 9.58, 9.54, 9.11, 8.4, 7.67, 6.7, 7.41, 7.68, 9.67, 10.48, 11.2, 11.44, 12.29, 12.37, 11.06, 8.01, 6.07, 4.02, 3.97, 1.79, 1.2, 0.89, -0.57, -2.86, -3.32, -2.8, -1.86, -0.95, -1.26, -0.65, -0.0, -0.0, -0.66, -0.7, -0.0, 1.35, 1.35, 10.1, 10.1, 10.1, 10.1, 10.76, 10.76, 10.76, 10.47, 10.47, 9.84, 8.24, 6.34, 5.59, 5.15, 6.7, 4.22, 4.46, 4.81, 4.74, 4.36, 3.55, 2.26, 0.0, 0.0, 0.0, 0.0, 0.0, -1.96, -1.98, -1.7, -0.76, 0.0, 0.0, 0.82, 1.45, 1.41, 1.72, 3.48, 2.21, 1.26, 0.6, 1.2, 2.24, 3.04, 4.4, 4.81, 5.77, 6.08, 6.08, 7.81, 7.81, 6.28, 6.79, 6.79, 7.71, 8.63, 9.11, 9.11, 10.02, 10.93, 10.62, 10.16, 9.26, 7.71, 6.08, 6.32, 8.03, 8.06, 8.63, 9.49, 10.25, 10.02, 10.05, 11.84, 12.77, 12.86, 10.25, 4.47, 2.68, 3.13, 2.68, 1.58, 0.45, -1.24, -2.4, -3.13, -2.68, -2.68, -2.24, -1.86, -1.61, -1.13, -0.66, -0.69, -0.0, 0.72, 2.04, 1.94, 9.45, 10.1, 10.1, 10.1, 10.39, 10.76, 10.47, 10.76, 10.13, 9.49, 7.59, 5.69, 4.83, 4.81, 7.28, 5.46, 5.09, 5.72, 5.09, 4.11, 3.84, 4.4, 3.48, 2.04, 0.0, 0.0, -0.79, -1.8, -2.99, -2.16, -0.96, 0.0, 0.0, 1.1, 1.47, 0.66, 0.0, 0.8, 0.95, 0.63, 0.0, -0.0, 0.95, 1.58, 2.53, 3.48, 5.15, 6.08, 7.03, 7.37, 5.86, 6.28, 7.21, 7.71, 8.19, 9.11, 9.26, 9.36, 10.7, 11.18, 10.73, 9.83, 6.98, 5.46, 4.83, 6.24, 8.68, 9.08, 8.8, 8.91, 9.39, 8.94, 9.39, 10.7, 11.18, 11.18, 10.7, 7.45, 4.85, 3.58, 4.43, 3.39, 2.24, 0.57, -1.26, -2.68, -2.91, -3.07, -3.13, -2.53, -2.07, -2.0, -2.2, -1.58, -0.0, 0.69, 2.11, 2.11, 9.45, 9.45, 9.83, 10.11, 10.11, 10.47, 10.47, 10.13, 9.84, 8.85, 7.32, 5.64, 5.69, 5.06, 5.76, 5.59, 5.69, 5.69, 4.43, 2.41, 2.98, 5.26, 7.21, 6.28, 4.11, 1.8, 0.0, -1.2, -1.49, -1.98, 0.0, 0.0, 0.0, 0.0, 0.0, 0.0, 0.0, 0.0, 0.63, 1.79, 1.6, 1.58, 1.58, 1.58, 2.54, 3.2, 3.9, 4.98, 6.4, 6.94, 8.37, 6.4, 6.94, 7.71, 8.33, 8.46, 8.94, 9.83, 10.28, 10.7, 9.8, 7.15, 4.8, 3.9, 5.1, 7.68, 9.2, 9.11, 7.6, 8.01, 7.89, 7.92, 8.82, 9.74, 9.74, 9.36, 8.05, 8.05, 8.05, 7.15, 4.47, 4.47, 4.73, 2.8, 0.6, -0.89, -2.4, -3.13, -3.07, -3.43, -3.38, -2.8, -2.66, -2.26, -0.0, 0.72, 2.11, 1.94, 9.45, 9.45, 9.45, 10.11, 10.11, 10.11, 10.47, 10.13, 9.48, 8.85, 7.83, 6.9, 6.27, 5.8, 5.72, 5.86, 5.72, 5.93, 4.54, 3.25, 3.25, 4.18, 6.44, 6.4, 6.64, 3.22, 0.0, -0.45, 0.0, 0.0, 0.0, 0.0, 0.0, 0.0, 0.0, 0.0, 0.0, 0.0, 1.34, 2.68, 3.51, 2.4, 2.23, 2.54, 2.6, 3.58, 4.02, 4.47, 5.59, 6.4, 6.44, 6.44, 6.94, 6.79, 6.98, 7.11, 7.15, 8.05, 8.46, 8.36, 6.71, 4.15, 3.45, 4.03, 5.89, 6.7, 7.67, 7.2, 4.87, 4.41, 5.16, 6.36, 7.92, 8.38, 8.84, 8.84, 8.36, 7.89, 7.48, 5.36, 3.82, 5.09, 6.25, 5.95, 2.5, 1.2, 0.0, -0.0, -0.7, -2.8, -3.47, -3.26, -3.0, -2.2, -0.0, 0.7, 1.35, 1.35, 9.19, 9.45, 9.73, 10.11, 10.11, 10.11, 10.11, 10.13, 9.21, 8.2, 7.55, 7.93, 8.2, 7.55, 6.65, 6.1, 6.73, 5.77, 4.62, 3.93, 3.91, 4.04, 4.13, 4.93, 5.4, 0.96, -0.6, -0.45, 0.0, 1.49, 0.57, 0.0, -0.89, -0.89, 0.0, 0.0, 0.95, 1.34, 2.12, 3.51, 4.15, 2.4, 2.54, 5.2, 5.36, 3.13, 4.02, 4.41, 4.15, 4.19, 4.74, 5.37, 5.77, 5.43, 4.46, 4.11, 4.46, 4.66, 4.47, 3.58, 1.58, 2.29, 3.27, 4.0, 4.71, 5.41, 5.18, 4.71, 3.07, 2.6, 3.13, 4.92, 6.22, 7.48, 8.24, 9.15, 8.67, 7.47, 4.4, 2.68, 2.53, 4.74, 6.98, 7.95, 6.98, 5.05, 3.32, 3.45, 2.66, -0.0, -2.04, -2.11, -2.11, -2.04, -0.7, -0.0, 0.63, 1.23, 9.19, 9.47, 9.73, 10.11, 10.11, 10.11, 10.11, 10.13, 9.21, 8.2, 8.2, 8.18, 8.57, 8.58, 8.59, 7.96, 6.08, 5.08, 4.44, 5.08, 5.45, 5.44, 4.81, 5.2, 4.47, 2.73, 0.0, -0.89, -0.89, 0.0, 0.0, 0.45, -0.45, 0.0, 0.0, 0.45, 1.34, 1.49, 1.86, 2.8, 2.86, 2.86, 3.74, 5.7, 5.36, 2.68, 2.12, 2.53, 2.48, 2.0, 2.2, 3.22, 3.0, 2.26, 2.4, 2.31, 3.8, 3.64, 0.95, -0.0, -0.0, 2.39, 3.85, 3.02, 2.28, 2.33, 3.07, 3.07, 3.27, 3.9, 4.43, 5.6, 5.77, 6.21, 7.21, 8.82, 7.6, 2.8, 1.79, 2.21, 2.53, 4.43, 7.07, 8.68, 8.59, 8.24, 7.85, 6.13, 4.12, 1.41, -0.7, -1.94, -2.04, -1.35, -0.63, -0.0, -0.0, 0.63, 9.19, 9.47, 9.47, 9.73, 10.11, 10.11, 9.84, 9.48, 8.83, 8.85, 8.2, 8.18, 8.83, 9.49, 9.82, 9.17, 7.23, 5.59, 5.29, 6.03, 7.31, 8.67, 9.68, 9.37, 8.94, 8.49, 6.71, 2.24, -0.89, -3.13, -1.79, -0.45, 0.45, 0.45, 1.2, 1.2, 1.26, 1.24, 1.24, 2.23, 2.8, 3.2, 3.74, 3.04, 2.24, 1.79, 1.58, 0.85, 0.85, 1.49, 1.4, 1.4, 0.76, -0.0, -0.0, 0.98, 2.4, 3.49, 2.12, -0.0, -0.73, 1.52, 3.07, 2.34, 0.75, 0.75, 0.73, 1.52, 3.06, 4.71, 6.42, 6.64, 6.0, 5.36, 6.28, 6.4, 2.6, 1.2, 2.41, 4.75, 5.72, 5.05, 6.13, 6.79, 8.32, 8.93, 9.27, 7.28, 4.11, 2.0, 0.7, -0.67, -1.3, -1.41, -0.66, -0.0, -0.0, -0.0, 8.79, 9.47, 9.47, 9.73, 10.11, 10.11, 10.13, 9.48, 8.83, 8.85, 8.46, 8.85, 8.57, 9.49, 9.84, 9.5, 8.5, 7.44, 6.7, 7.08, 8.3, 9.7, 10.81, 11.49, 11.57, 11.16, 10.27, 7.13, 1.7, -0.45, -1.34, -0.45, -0.0, 0.63, 1.2, 1.26, 1.24, 1.24, 1.58, 1.86, 2.6, 2.68, 2.68, 5.81, 4.47, 2.8, -0.0, 0.71, 0.8, 0.8, 0.95, 1.34, 0.89, 0.0, 0.0, 0.0, 0.0, 2.68, 4.47, 0.8, -1.49, -0.0, 2.23, 1.14, 0.78, -0.0, -0.0, -0.0, 2.21, 4.83, 6.88, 6.32, 3.79, 2.68, 2.6, 2.24, 1.24, 3.35, 5.43, 7.07, 8.0, 7.71, 7.12, 7.15, 6.64, 8.4, 9.49, 7.67, 5.06, 3.32, 2.72, 0.63, -0.0, -0.0, -0.0, -0.0, -0.0, -0.0, 8.79, 9.19, 9.47, 9.73, 10.11, 10.11, 10.13, 9.48, 9.21, 8.85, 8.85, 8.85, 8.85, 9.22, 9.21, 9.5, 9.17, 8.78, 8.65, 8.18, 8.82, 9.71, 10.91, 11.56, 11.74, 11.4, 11.05, 10.22, 6.51, 2.49, 0.89, 0.89, 1.58, 1.9, 3.2, 1.41, 2.4, 1.4, 3.48, 2.12, 2.68, 5.36, 5.81, 5.36, 4.02, 1.27, -0.0, -0.0, 1.6, 0.95, 1.34, 1.79, 1.79, 1.79, 1.34, 0.89, 0.63, 3.84, 7.01, 3.93, -0.0, -0.0, 1.05, 1.99, 1.99, 1.08, -0.0, 0.99, 2.73, 3.49, 3.72, 2.15, 0.8, -0.0, 0.63, 2.15, 4.01, 6.39, 7.44, 8.63, 9.2, 8.82, 8.01, 6.26, 3.07, 5.36, 6.79, 6.64, 5.69, 4.46, 3.91, 2.8, 0.7, -0.0, -0.0, -0.0, -0.0, -0.0, 8.79, 9.19, 9.47, 9.73, 9.73, 10.11, 9.84, 9.48, 9.21, 8.85, 8.85, 8.85, 8.85, 8.86, 9.21, 9.21, 9.48, 9.46, 9.59, 9.5, 9.63, 9.88, 10.71, 10.91, 11.28, 11.4, 11.49, 11.12, 9.77, 7.52, 5.34, 4.47, 3.58, 4.47, 3.82, 1.24, 1.66, 2.3, 4.11, 4.77, 2.68, 2.68, 5.81, 5.36, 3.72, 1.41, -0.0, -0.0, 1.8, 2.53, 3.2, 1.79, 2.54, 2.6, 2.6, 2.54, 2.68, 4.98, 6.26, 6.32, 4.16, 3.68, 3.76, 4.11, 2.54, 2.12, 1.79, 1.6, 1.49, 1.8, 0.57, -0.8, -1.79, -0.63, 1.24, 3.35, 5.94, 7.97, 8.68, 8.68, 9.3, 8.67, 7.35, 4.85, 2.24, 1.34, 3.07, 3.49, 3.9, 4.03, 4.46, 2.04, 0.64, 0.69, 1.45, 0.63, 0.57, 0.57, 8.79, 8.79, 9.47, 9.47, 9.73, 9.84, 9.84, 9.48, 9.21, 9.49, 8.85, 8.85, 8.86, 8.86, 8.87, 8.59, 9.48, 9.17, 10.01, 9.86, 10.3, 10.55, 10.71, 11.08, 10.96, 11.57, 12.02, 12.06, 11.62, 10.28, 8.92, 7.58, 6.26, 6.26, 2.12, 1.58, 1.49, 2.98, 3.39, 5.81, 5.36, 2.68, 5.36, 2.6, 4.09, 2.48, 1.41, 1.41, 2.48, 3.72, 4.09, 4.4, 4.8, 5.2, 5.81, 5.4, 6.14, 7.15, 7.2, 7.28, 6.64, 5.37, 4.43, 5.2, 5.7, 3.13, 2.24, 1.34, 0.95, 0.95, 0.45, -1.86, -2.12, 0.45, 1.9, 3.9, 6.31, 9.48, 10.24, 9.62, 8.6, 8.68, 8.05, 6.25, 4.46, 2.41, 1.9, 2.07, 3.11, 3.79, 4.94, 3.55, 1.3, 1.3, 1.41, 1.3, 1.23, 1.23, 8.79, 9.07, 9.47, 9.47, 9.47, 9.47, 9.47, 9.48, 9.48, 9.49, 8.85, 8.58, 8.86, 8.87, 8.59, 8.58, 9.19, 9.77, 10.01, 10.41, 10.68, 10.91, 10.71, 10.81, 11.05, 12.06, 12.06, 12.06, 11.61, 11.61, 10.67, 8.87, 6.71, 5.36, 4.44, 3.58, 1.79, 2.68, 3.58, 4.02, 3.13, 2.68, 2.68, 2.54, 4.09, 2.48, 2.73, 2.73, 4.09, 4.8, 5.2, 5.2, 5.81, 5.81, 5.37, 5.75, 6.13, 5.93, 6.7, 6.52, 6.52, 6.7, 6.13, 6.23, 6.14, 3.58, 2.24, 1.79, 1.58, 2.21, 1.9, 1.86, 2.68, 4.73, 5.43, 4.01, 6.32, 10.29, 11.53, 10.29, 9.05, 8.63, 8.55, 6.32, 4.74, 3.9, 2.79, 3.22, 2.2, 2.3, 3.79, 3.69, 2.6, 2.11, 2.11, 2.11, 2.6, 2.6, 9.07, 9.07, 9.47, 9.47, 9.47, 9.47, 9.47, 9.75, 9.48, 9.49, 9.22, 8.86, 8.59, 8.59, 7.96, 8.66, 8.58, 9.48, 9.42, 10.3, 11.6, 12.11, 11.31, 10.15, 9.83, 11.13, 9.57, 10.49, 10.93, 10.34, 9.11, 6.68, 4.47, 3.58, 3.58, 3.58, 3.7, 4.55, 5.34, 4.34, 3.95, 3.51, 2.68, 5.2, 4.09, 3.48, 3.79, 4.09, 4.09, 4.8, 5.2, 5.4, 5.81, 5.01, 4.74, 5.37, 5.93, 5.93, 5.69, 6.7, 6.7, 6.8, 6.79, 4.41, 3.58, 2.68, 2.24, 2.68, 4.24, 5.81, 8.05, 11.06, 13.96, 14.7, 11.95, 7.89, 6.26, 8.94, 11.6, 11.4, 9.26, 9.36, 7.56, 5.86, 4.12, 3.79, 3.49, 2.79, 2.3, 1.16, 1.41, 3.79, 3.64, 2.2, 2.2, 2.4, 2.48, 2.48, 8.81, 9.07, 9.07, 9.47, 9.47, 9.2, 9.2, 9.48, 9.84, 9.49, 9.22, 8.86, 8.87, 8.23, 8.23, 8.24, 8.24, 7.61, 7.82, 8.65, 11.28, 12.42, 11.24, 10.29, 9.66, 9.67, 9.65, 9.2, 9.71, 9.01, 6.51, 4.02, 2.68, 2.17, 2.17, 2.68, 3.39, 4.4, 5.4, 5.88, 6.47, 6.23, 6.26, 5.7, 4.8, 5.2, 4.8, 4.8, 4.4, 4.4, 4.8, 5.2, 4.65, 3.76, 2.15, 3.07, 5.69, 4.11, 4.81, 6.8, 6.79, 6.23, 6.14, 6.17, 3.58, 2.24, 1.6, 1.58, 3.83, 6.7, 9.49, 13.07, 16.76, 18.35, 16.92, 12.42, 8.63, 8.32, 10.75, 10.16, 10.28, 9.39, 7.15, 3.82, 3.45, 3.48, 3.15, 2.66, 1.84, 1.16, 1.16, 2.3, 2.98, 2.07, 1.8, 2.3, 2.79, 2.79, 8.81, 8.81, 8.81, 9.2, 9.2, 9.48, 9.48, 9.48, 9.48, 9.84, 9.22, 8.86, 8.87, 8.23, 8.59, 8.58, 8.24, 7.61, 6.97, 8.46, 10.86, 11.23, 11.23, 10.3, 10.59, 9.94, 9.76, 9.35, 8.68, 7.51, 4.8, 3.58, 3.13, 3.53, 3.09, 2.63, 2.68, 3.39, 4.6, 5.99, 6.47, 6.68, 6.71, 6.16, 5.09, 5.4, 4.8, 4.8, 4.77, 4.77, 5.2, 4.8, 3.49, 2.32, 3.45, 2.07, 4.01, 4.29, 6.28, 5.81, 5.4, 5.4, 6.14, 6.26, 3.04, 1.58, -0.0, 0.81, 2.35, 4.83, 6.88, 10.55, 14.17, 15.63, 15.12, 13.75, 9.08, 8.56, 8.46, 8.68, 9.54, 8.91, 6.66, 4.66, 4.81, 2.79, 2.11, 2.12, 2.66, 1.8, 1.16, 1.84, 2.51, 2.07, 1.84, 2.07, 2.51, 2.51, 8.81, 8.81, 8.81, 8.81, 9.09, 9.09, 8.83, 9.48, 9.48, 9.49, 9.22, 9.21, 8.87, 8.59, 8.87, 8.58, 8.24, 7.95, 8.58, 9.5, 10.36, 10.06, 10.01, 10.3, 10.59, 11.07, 10.83, 10.4, 9.21, 7.87, 6.23, 5.81, 5.81, 5.81, 5.78, 4.89, 4.02, 3.58, 3.98, 4.77, 5.57, 5.7, 5.81, 5.81, 5.24, 4.19, 4.8, 4.77, 4.77, 4.77, 4.09, 3.48, 2.6, 2.32, 2.32, 3.45, 2.88, 3.91, 5.72, 5.36, 2.54, 2.12, 3.04, 3.47, 2.6, 0.79, -0.0, -0.0, 0.76, 1.1, 3.17, 6.69, 8.67, 6.66, 7.02, 8.22, 8.38, 8.01, 6.95, 6.7, 7.02, 7.06, 5.81, 5.05, 3.43, 2.11, 1.52, 1.52, 3.47, 3.38, 2.53, 1.88, 1.88, 1.84, 1.84, 1.84, 2.84, 2.84, 8.81, 8.81, 8.81, 9.09, 8.83, 8.83, 8.83, 8.83, 9.21, 9.49, 9.22, 9.21, 8.87, 8.59, 8.58, 8.58, 8.56, 8.56, 8.58, 9.8, 10.65, 10.23, 9.59, 9.59, 10.15, 10.96, 11.6, 11.12, 10.6, 9.57, 8.86, 8.03, 8.03, 7.6, 7.6, 6.71, 5.81, 4.47, 4.02, 3.98, 4.34, 4.77, 4.89, 4.92, 4.47, 4.3, 5.2, 4.77, 4.24, 4.24, 4.09, 2.4, 2.4, 2.6, 2.16, 2.16, 1.41, 2.8, 5.44, 4.65, 2.53, 1.6, 1.6, 1.58, 0.87, 0.81, 0.76, -0.0, -0.0, -0.0, -0.0, 0.95, 0.63, 0.89, 1.27, 2.2, 3.55, 5.04, 5.47, 5.4, 4.96, 3.72, 3.13, 3.07, 2.07, 1.41, 1.41, 2.0, 3.22, 4.36, 2.51, 2.21, 1.61, 1.4, 1.61, 2.23, 3.14, 3.14, 8.83, 8.83, 8.83, 8.83, 8.83, 8.83, 8.83, 8.85, 8.85, 9.22, 9.5, 9.21, 9.21, 8.59, 8.58, 8.58, 8.87, 8.87, 9.17, 9.77, 10.3, 10.51, 10.41, 10.13, 10.3, 10.68, 11.08, 10.91, 10.91, 10.34, 10.01, 9.68, 9.32, 8.92, 8.47, 8.05, 7.6, 6.71, 5.36, 4.88, 4.44, 4.34, 4.34, 4.44, 4.02, 3.98, 5.2, 4.77, 4.77, 4.09, 3.79, 3.79, 2.73, 2.4, 1.3, 1.3, 0.65, 1.4, 2.95, 5.15, 4.43, 2.23, 0.95, 0.85, 0.79, 0.76, 0.82, 1.18, 0.73, -0.0, 0.45, 2.53, 2.6, 2.6, 5.4, 5.2, 4.8, 4.77, 4.22, 3.7, 2.75, 2.98, 3.07, 2.4, 0.61, 0.59, 1.33, 1.84, 2.3, 3.64, 3.72, 1.84, 1.84, 1.4, 1.88, 2.21, 3.07, 3.07, 8.83, 8.83, 8.83, 8.83, 8.83, 8.83, 8.85, 8.85, 8.85, 8.85, 9.5, 9.21, 9.5, 9.21, 8.87, 8.58, 8.87, 8.87, 9.17, 10.06, 10.3, 10.59, 10.51, 10.41, 10.3, 10.55, 10.55, 10.62, 10.42, 10.18, 9.86, 9.57, 9.24, 9.32, 8.87, 8.47, 8.47, 7.52, 7.06, 6.16, 5.26, 4.8, 4.77, 4.44, 4.47, 4.02, 4.47, 4.88, 4.8, 5.09, 4.6, 5.2, 4.09, 2.48, 1.55, 1.19, 1.41, 0.57, 0.71, 2.21, 5.95, 5.34, 1.26, -0.0, 0.88, 0.81, 0.76, 0.72, 0.76, 0.6, 2.8, 5.82, 8.87, 10.02, 11.62, 11.88, 11.05, 8.95, 6.17, 2.2, 2.6, 4.41, 3.82, 1.7, 0.65, 0.61, 1.33, 1.33, 1.41, 2.2, 3.69, 3.55, 2.48, 2.15, 1.9, 2.5, 2.91, 2.91, 8.83, 8.83, 8.83, 8.83, 8.83, 8.83, 8.85, 8.85, 8.58, 8.86, 8.86, 9.21, 9.5, 9.21, 9.19, 8.58, 8.87, 9.17, 9.17, 9.72, 9.72, 10.23, 10.51, 10.79, 10.68, 10.55, 10.4, 10.21, 9.92, 9.7, 9.27, 9.39, 9.11, 8.79, 8.79, 8.86, 8.42, 8.42, 7.87, 7.4, 6.94, 6.04, 5.7, 5.78, 5.36, 4.92, 4.89, 4.89, 5.33, 5.33, 4.8, 4.3, 4.77, 2.84, 1.41, 1.55, 2.48, 1.8, 1.6, 0.8, 3.04, 6.8, 4.84, 1.6, 0.79, 0.73, 0.81, 0.73, 1.55, 1.74, 2.68, 5.26, 8.49, 11.52, 12.29, 12.16, 12.05, 11.06, 4.92, 2.53, 2.88, 4.11, 3.07, 1.34, 0.54, 0.61, 1.33, 1.27, 1.55, 2.11, 3.38, 4.94, 4.43, 3.16, 3.07, 2.91, 3.07, 3.07, 8.18, 8.18, 8.57, 8.85, 8.85, 8.85, 8.85, 8.85, 8.86, 8.86, 8.86, 8.86, 9.5, 9.21, 9.5, 9.19, 8.87, 9.17, 9.46, 9.72, 9.72, 10.01, 10.51, 10.51, 10.41, 10.3, 10.4, 10.21, 9.92, 9.7, 9.21, 8.96, 8.64, 8.64, 8.77, 8.77, 8.77, 8.77, 8.33, 8.3, 7.87, 7.87, 7.51, 6.68, 6.26, 5.81, 5.81, 5.36, 5.36, 5.36, 4.89, 4.44, 3.53, 2.4, 0.8, 0.71, 2.23, 1.6, -0.0, -0.0, 1.6, 5.16, 5.81, 3.16, 2.16, 0.88, 0.7, 1.74, 2.53, 3.04, 4.02, 4.85, 6.65, 8.05, 8.63, 9.3, 9.27, 8.71, 6.21, 2.4, 1.33, 1.84, 1.61, 1.34, 1.2, 1.49, 1.2, 1.49, 2.2, 3.07, 3.48, 4.73, 5.72, 4.46, 3.6, 3.32, 3.07, 3.07, 8.46, 8.46, 8.85, 8.85, 8.85, 8.85, 8.85, 8.58, 8.86, 8.59, 8.59, 8.59, 8.87, 9.21, 9.21, 9.19, 9.48, 9.17, 9.46, 9.46, 10.01, 10.01, 10.51, 10.51, 10.41, 10.3, 10.16, 10.4, 10.11, 9.92, 9.7, 9.39, 8.96, 8.64, 8.64, 8.64, 8.64, 8.64, 8.21, 8.3, 7.87, 7.87, 7.51, 7.13, 6.71, 6.71, 6.71, 6.26, 5.81, 5.36, 4.92, 4.47, 3.58, 2.68, 1.58, 0.8, 2.84, 1.6, -0.0, -0.0, 1.26, 3.51, 4.85, 3.16, 2.2, 2.32, 1.49, 1.6, 2.68, 3.13, 4.47, 5.81, 6.07, 4.66, 4.47, 6.71, 8.49, 7.6, 5.77, 3.58, 2.4, 2.15, 2.97, 3.58, 3.58, 2.24, 1.58, 1.88, 2.84, 4.09, 4.24, 4.73, 6.0, 5.2, 4.0, 3.39, 3.09, 3.09, 8.46, 8.46, 8.85, 8.85, 8.85, 8.58, 8.58, 8.86, 8.86, 8.59, 8.59, 8.87, 8.87, 9.21, 9.21, 9.5, 9.48, 9.17, 9.46, 9.46, 10.01, 10.01, 10.01, 9.94, 10.41, 9.86, 9.76, 9.63, 9.88, 9.71, 9.92, 9.7, 9.21, 9.39, 8.96, 8.96, 8.91, 8.64, 8.64, 8.21, 7.74, 7.4, 6.94, 6.21, 5.36, 5.81, 6.71, 6.6, 6.16, 5.78, 4.89, 4.44, 3.53, 2.24, 1.49, 1.49, 1.6, 1.6, 0.8, 0.6, 1.2, 2.68, 3.51, 2.21, 1.88, 2.41, 2.68, 2.23, 1.34, 2.6, 3.51, 5.81, 7.11, 6.4, 6.32, 7.59, 7.32, 7.45, 7.6, 7.92, 4.92, 4.92, 5.81, 6.26, 6.67, 6.11, 4.4, 2.91, 3.53, 3.97, 4.41, 4.87, 6.11, 5.2, 3.87, 3.39, 3.53, 3.53, 8.2, 8.2, 8.2, 8.58, 8.58, 8.86, 8.86, 8.86, 8.59, 8.59, 8.59, 8.23, 8.59, 8.87, 9.21, 9.5, 9.19, 9.48, 9.46, 9.46, 10.01, 10.01, 9.94, 9.59, 9.86, 9.5, 9.76, 9.63, 9.88, 9.71, 9.71, 9.92, 9.51, 9.7, 9.21, 9.21, 8.96, 8.96, 8.48, 8.64, 8.17, 7.69, 7.4, 6.47, 5.7, 4.92, 6.71, 6.16, 5.09, 4.6, 4.11, 3.6, 2.68, 2.24, 1.86, 1.9, 1.9, 1.9, 0.95, 0.95, 1.2, 2.24, 2.6, 2.23, 2.23, 2.23, 1.88, 2.4, 1.74, 1.34, 2.21, 4.38, 7.6, 9.39, 9.2, 9.27, 9.3, 8.24, 8.82, 10.73, 11.6, 9.39, 8.94, 8.48, 8.21, 8.25, 7.56, 7.48, 6.26, 5.36, 5.31, 5.77, 7.01, 5.16, 3.97, 3.53, 3.07, 3.07, 8.2, 8.2, 8.2, 8.86, 8.86, 8.86, 8.86, 8.86, 8.59, 8.59, 8.51, 8.23, 8.23, 8.59, 8.87, 9.19, 9.19, 9.48, 9.48, 9.72, 10.01, 9.66, 9.94, 9.37, 9.3, 9.3, 9.21, 9.1, 9.35, 9.48, 9.71, 9.71, 9.71, 9.92, 9.51, 9.7, 9.21, 9.21, 8.91, 8.48, 8.0, 7.74, 7.26, 6.79, 5.88, 5.75, 6.07, 5.99, 5.09, 4.19, 4.11, 3.82, 3.53, 2.68, 2.8, 2.5, 2.15, 2.23, 1.86, 1.2, 1.2, 1.7, 1.86, 2.17, 2.24, 1.79, 1.2, 0.8, 2.23, 2.68, 2.54, 1.34, 4.15, 9.75, 12.49, 11.87, 10.53, 9.92, 9.2, 11.66, 13.79, 13.41, 9.83, 8.79, 8.3, 9.51, 10.0, 10.37, 8.67, 6.66, 5.77, 6.22, 7.12, 7.94, 4.43, 3.09, 2.63, 2.63, 8.2, 8.2, 8.2, 8.49, 8.86, 8.86, 8.59, 8.59, 8.59, 8.87, 8.23, 8.23, 8.23, 8.59, 8.87, 8.87, 9.19, 9.48, 9.77, 10.06, 9.72, 9.66, 9.71, 9.37, 9.3, 8.94, 9.21, 8.93, 8.67, 8.68, 9.35, 9.48, 9.71, 9.71, 9.71, 9.92, 9.51, 9.01, 9.21, 8.72, 8.48, 8.0, 7.51, 7.01, 6.6, 6.8, 7.01, 6.51, 5.7, 5.24, 5.24, 4.89, 4.47, 4.47, 3.53, 2.91, 2.8, 2.4, 1.86, 1.86, 1.2, 1.6, 2.12, 2.68, 2.24, 1.79, 1.34, 0.89, 1.79, 4.47, 3.13, 0.95, 0.8, 6.88, 14.11, 14.75, 10.52, 7.06, 7.06, 9.45, 12.79, 12.96, 11.53, 9.43, 10.18, 10.97, 11.87, 11.39, 10.32, 8.67, 7.57, 7.6, 7.15, 8.49, 5.67, 3.53, 2.68, 2.68, 7.95, 7.95, 8.22, 8.22, 8.59, 8.59, 8.59, 8.59, 8.87, 8.87, 8.23, 8.23, 8.23, 8.23, 8.58, 8.87, 9.19, 9.48, 9.48, 9.48, 9.72, 9.66, 9.42, 9.37, 9.3, 8.94, 8.65, 8.65, 8.55, 8.67, 8.27, 8.82, 9.35, 9.48, 9.48, 9.71, 9.71, 9.42, 9.01, 8.72, 8.3, 8.22, 7.81, 7.51, 7.01, 6.8, 7.09, 7.21, 6.94, 6.47, 6.16, 5.79, 5.36, 4.47, 4.02, 3.53, 3.07, 2.4, 2.4, 2.23, 1.9, 1.6, 4.24, 2.12, 2.12, 1.79, 1.79, 1.7, 1.86, 3.47, 3.97, 2.23, 1.7, 5.64, 12.87, 16.07, 10.7, 3.32, 2.6, 6.67, 10.28, 11.99, 12.79, 12.66, 12.3, 12.75, 12.64, 12.18, 11.66, 8.82, 8.9, 8.94, 8.91, 8.47, 7.6, 3.97, 2.63, 2.63, 7.95, 7.95, 8.22, 8.22, 8.22, 8.59, 8.87, 8.87, 8.87, 8.59, 8.23, 8.23, 8.23, 8.24, 8.58, 8.58, 8.58, 8.87, 9.17, 9.17, 9.46, 9.42, 9.42, 9.37, 9.3, 8.94, 9.01, 8.65, 9.21, 8.55, 8.43, 8.43, 8.82, 8.96, 9.35, 9.35, 9.6, 9.2, 9.2, 9.01, 8.51, 8.22, 7.81, 7.71, 7.31, 6.8, 7.01, 7.01, 6.79, 6.94, 6.51, 6.16, 5.78, 4.92, 4.02, 3.58, 3.13, 2.63, 2.4, 2.23, 2.53, 2.53, 2.84, 3.35, 1.49, 1.7, 1.79, 1.79, 2.24, 2.68, 3.51, 4.0, 4.47, 8.3, 13.07, 16.02, 13.84, 10.02, 9.4, 10.98, 12.5, 13.39, 14.29, 14.74, 14.74, 12.5, 12.02, 11.12, 11.09, 9.36, 7.6, 9.39, 9.74, 10.05, 8.46, 4.73, 3.2, 3.2, 7.83, 7.83, 8.22, 8.22, 8.22, 8.87, 8.87, 8.59, 8.59, 8.59, 8.23, 8.23, 8.24, 8.24, 8.24, 8.58, 8.87, 8.87, 9.17, 9.17, 9.46, 9.13, 9.42, 9.37, 9.02, 9.3, 8.73, 8.65, 9.21, 8.84, 9.1, 8.82, 8.82, 8.82, 8.96, 8.96, 8.96, 8.96, 9.2, 9.2, 8.68, 8.51, 8.0, 7.71, 7.31, 7.31, 7.2, 7.01, 7.01, 6.79, 6.79, 6.04, 5.7, 4.89, 4.44, 4.02, 3.58, 2.68, 2.17, 1.9, 1.9, 2.53, 2.84, 2.84, 3.72, 3.82, 1.7, 2.12, 2.24, 2.24, 2.68, 3.13, 6.71, 10.16, 12.14, 13.84, 14.87, 15.1, 15.61, 16.69, 15.2, 14.23, 13.7, 13.78, 13.39, 10.73, 9.83, 9.39, 8.49, 8.49, 8.01, 7.01, 9.54, 9.89, 8.38, 6.26, 4.52, 4.52, 7.57, 7.57, 7.57, 7.96, 8.23, 8.23, 8.59, 8.59, 8.59, 8.59, 8.53, 8.24, 8.24, 8.24, 8.24, 8.24, 8.87, 8.87, 8.87, 8.85, 9.13, 9.13, 9.42, 9.37, 9.37, 9.3, 8.94, 9.21, 9.21, 9.21, 9.1, 9.1, 9.1, 8.96, 8.82, 8.82, 8.82, 8.82, 8.82, 8.82, 8.68, 8.28, 8.0, 7.71, 7.31, 7.31, 7.31, 7.31, 6.8, 7.01, 6.51, 6.3, 5.57, 4.8, 4.44, 3.98, 3.58, 2.68, 2.17, 2.23, 1.9, 1.9, 3.2, 1.49, 2.12, 4.77, 2.12, 2.24, 2.24, 2.24, 2.24, 2.68, 6.71, 10.73, 11.62, 10.28, 11.52, 14.21, 16.09, 17.31, 16.54, 12.94, 9.62, 8.24, 7.92, 7.57, 7.15, 5.32, 6.22, 7.45, 7.01, 6.36, 8.4, 8.82, 8.24, 7.15, 5.02, 5.02, 7.57, 7.57, 7.57, 7.57, 8.23, 8.23, 8.23, 8.59, 8.59, 8.87, 8.24, 8.24, 8.24, 8.24, 8.24, 8.54, 8.56, 8.56, 8.56, 8.85, 8.85, 8.85, 9.08, 9.08, 9.37, 9.02, 9.3, 8.94, 9.21, 9.21, 9.21, 9.48, 9.1, 9.1, 8.96, 8.82, 8.82, 8.43, 8.43, 8.43, 8.43, 8.28, 7.61, 7.35, 6.8, 7.31, 7.71, 7.08, 7.2, 6.8, 6.51, 6.0, 5.4, 5.09, 4.77, 4.3, 3.53, 2.68, 2.6, 2.4, 2.23, 2.23, 3.2, 1.7, 2.12, 4.92, 2.24, 2.24, 2.24, 2.24, 1.79, 2.68, 4.82, 11.13, 12.3, 9.81, 7.89, 11.4, 15.03, 16.48, 15.2, 12.07, 8.49, 5.36, 3.53, 4.02, 5.36, 4.47, 4.88, 5.78, 5.64, 5.2, 5.2, 7.45, 7.56, 6.26, 4.09, 5.44, 6.92, 6.92, 7.32, 7.85, 8.23, 8.23, 8.23, 8.87, 8.87, 8.58, 8.58, 8.24, 8.24, 8.24, 8.54, 8.56, 8.56, 8.56, 8.56, 8.85, 8.53, 8.82, 8.82, 8.82, 9.37, 9.37, 9.02, 9.3, 9.3, 9.21, 9.21, 9.21, 9.21, 9.1, 9.1, 9.1, 8.82, 8.82, 8.43, 8.27, 8.27, 7.9, 7.61, 6.64, 6.6, 7.71, 7.87, 7.23, 6.95, 6.56, 6.28, 6.0, 5.4, 4.9, 4.6, 4.11, 3.39, 2.68, 2.6, 2.6, 2.4, 1.86, 3.2, 1.6, 2.24, 4.47, 4.47, 2.24, 2.24, 2.24, 2.24, 1.79, 2.68, 8.91, 14.17, 12.37, 6.79, 8.65, 12.97, 15.04, 13.56, 11.62, 10.73, 8.49, 6.71, 5.81, 5.81, 5.36, 5.36, 6.26, 5.36, 4.92, 4.92, 8.05, 7.6, 4.52, 2.11, 4.09, 6.92, 6.92, 7.59, 7.59, 7.59, 7.96, 7.96, 8.24, 8.58, 8.58, 8.58, 8.58, 8.58, 8.54, 8.24, 8.56, 8.56, 8.56, 8.85, 8.53, 8.53, 8.82, 8.82, 8.82, 8.82, 9.37, 9.02, 9.02, 9.3, 9.3, 9.21, 9.21, 9.21, 9.21, 9.48, 9.1, 9.1, 8.55, 8.43, 8.27, 7.9, 7.72, 7.35, 6.51, 6.44, 7.48, 7.76, 7.35, 6.7, 6.41, 6.28, 5.75, 5.47, 5.31, 4.8, 3.88, 3.39, 2.68, 2.6, 2.6, 2.6, 2.0, 2.0, 3.39, 4.02, 4.47, 2.24, 2.24, 2.68, 2.24, 1.79, 1.79, 1.79, 4.92, 10.4, 12.89, 10.23, 6.07, 7.68, 8.82, 8.76, 8.84, 10.28, 9.81, 8.46, 7.57, 8.01, 7.57, 7.12, 8.46, 8.01, 7.12, 6.71, 8.49, 6.07, 2.3, 1.98, 2.11, 7.19, 7.19, 7.19, 7.59, 7.59, 7.96, 8.24, 8.24, 8.24, 8.24, 8.58, 8.87, 8.87, 8.56, 8.56, 8.56, 8.56, 8.56, 8.53, 8.53, 8.53, 8.82, 8.82, 8.5, 8.5, 8.78, 9.02, 9.02, 9.02, 9.3, 9.3, 9.58, 9.21, 9.21, 9.21, 9.21, 9.1, 8.93, 8.55, 8.27, 7.9, 7.35, 7.15, 7.15, 7.15, 7.67, 7.07, 6.15, 5.59, 5.86, 5.49, 5.21, 5.21, 4.93, 4.55, 3.88, 3.39, 2.68, 3.13, 2.68, 2.6, 2.17, 3.2, 3.2, 3.82, 4.24, 2.24, 4.92, 1.79, 1.79, 2.12, 2.24, 2.24, 2.54, 4.47, 8.72, 11.16, 9.74, 4.02, 3.74, 2.8, 4.73, 7.6, 9.36, 9.81, 8.46, 7.57, 7.6, 8.49, 8.94, 9.39, 8.49, 7.6, 7.42, 3.79, 2.11, 2.98, 2.98, 6.94, 6.94, 6.94, 7.19, 7.59, 7.59, 8.24, 8.24, 7.96, 8.24, 8.56, 8.56, 8.56, 8.56, 8.56, 8.56, 8.56, 8.85, 8.53, 8.53, 8.53, 8.82, 8.5, 8.5, 8.5, 8.78, 9.02, 9.02, 9.02, 9.02, 9.3, 9.3, 9.58, 9.21, 9.21, 9.21, 8.84, 8.93, 8.55, 8.18, 7.9, 7.72, 7.35, 7.09, 7.8, 7.9, 6.7, 5.49, 4.94, 4.94, 4.94, 5.01, 4.65, 4.65, 4.37, 3.88, 3.13, 3.13, 3.13, 3.13, 2.68, 2.6, 2.6, 3.58, 3.82, 4.24, 4.77, 4.47, 1.7, 1.86, 1.58, 2.24, 2.24, 2.6, 2.84, 4.34, 9.26, 13.07, 11.44, 9.03, 7.73, 7.33, 9.28, 11.53, 11.09, 9.83, 7.6, 7.15, 7.6, 8.49, 8.94, 8.49, 4.47, 1.88, 2.3, 2.84, 2.84, 2.84, 6.94, 6.94, 6.94, 6.94, 7.33, 7.6, 7.6, 7.6, 7.96, 8.24, 8.24, 8.56, 8.56, 8.56, 8.56, 8.56, 8.85, 8.85, 8.53, 8.53, 8.82, 8.5, 8.5, 8.5, 8.5, 8.78, 8.78, 9.02, 9.02, 9.02, 9.02, 9.3, 9.3, 9.21, 9.21, 8.84, 8.65, 8.93, 8.55, 8.18, 8.27, 7.9, 7.35, 7.35, 7.44, 7.9, 7.48, 6.28, 5.75, 5.21, 4.84, 4.65, 4.29, 4.55, 4.27, 4.11, 3.58, 3.58, 3.58, 3.13, 3.13, 2.68, 2.6, 3.58, 3.82, 4.24, 4.77, 4.66, 1.58, 1.74, 2.6, 2.24, 2.54, 2.86, 3.72, 4.74, 7.28, 11.52, 13.23, 14.07, 13.76, 13.61, 13.45, 12.92, 11.75, 9.74, 7.15, 5.81, 6.22, 7.48, 7.56, 4.92, 2.91, 1.4, 2.8, 2.8, 2.8, 2.8, 6.94, 6.94, 6.94, 6.94, 6.94, 7.6, 7.6, 7.6, 7.6, 8.24, 8.24, 8.24, 8.56, 8.56, 8.56, 8.85, 8.85, 8.53, 8.53, 8.53, 8.5, 8.5, 8.5, 8.5, 8.5, 8.78, 8.78, 9.02, 9.02, 9.37, 9.02, 9.3, 9.3, 9.3, 9.21, 8.65, 8.65, 8.55, 8.55, 8.0, 8.27, 7.9, 7.72, 7.35, 7.35, 7.61, 7.48, 7.2, 6.4, 6.1, 5.6, 5.08, 5.31, 4.9, 4.6, 4.43, 4.02, 4.02, 3.58, 3.58, 3.13, 3.13, 2.68, 2.68, 4.02, 4.24, 4.66, 2.54, 2.53, 2.6, 2.0, 3.13, 3.04, 3.74, 4.84, 4.84, 6.51, 9.39, 11.66, 12.79, 13.76, 15.88, 16.8, 15.46, 12.5, 10.6, 9.62, 7.15, 6.22, 6.11, 8.87, 1.0, 0.65, 1.86, 2.4, 2.21, 2.21, 2.21, 6.94, 6.94, 6.94, 6.94, 7.22, 6.96, 6.96, 7.33, 7.33, 8.24, 8.24, 8.24, 8.56, 8.56, 8.85, 8.85, 8.53, 8.53, 8.53, 8.53, 8.5, 8.5, 8.5, 8.5, 8.5, 8.5, 8.78, 8.78, 9.02, 9.02, 9.02, 9.02, 9.3, 9.3, 9.21, 8.65, 8.65, 8.55, 8.37, 8.0, 8.27, 7.9, 7.9, 7.35, 7.61, 7.23, 7.48, 7.31, 7.2, 7.01, 6.51, 6.3, 5.81, 5.57, 5.7, 4.88, 4.44, 3.98, 4.02, 3.58, 3.58, 3.13, 3.13, 3.13, 3.07, 4.02, 4.24, 2.24, 2.24, 2.17, 2.68, 3.13, 3.04, 3.95, 4.38, 4.85, 6.26, 8.49, 9.72, 10.01, 11.16, 15.12, 17.19, 16.4, 13.86, 11.99, 11.09, 10.05, 8.05, 8.43, 3.39, 0.71, 1.24, 1.86, 1.49, 0.61, 0.61, 0.61, 6.7, 6.7, 6.7, 6.96, 6.96, 6.96, 6.96, 6.96, 7.33, 7.61, 7.95, 7.95, 8.24, 8.53, 8.53, 8.53, 8.53, 8.53, 8.53, 8.53, 8.5, 8.5, 8.5, 8.5, 8.5, 8.5, 8.78, 8.78, 9.02, 9.02, 9.02, 9.02, 9.3, 8.94, 8.73, 8.65, 8.65, 8.55, 8.0, 8.0, 7.9, 7.9, 7.9, 7.61, 7.61, 7.48, 7.48, 7.31, 7.31, 7.51, 7.01, 6.79, 6.3, 6.47, 5.7, 5.24, 4.88, 4.44, 4.02, 4.02, 3.58, 3.58, 3.13, 3.13, 3.13, 4.02, 4.47, 4.47, 4.92, 2.24, 2.17, 2.54, 3.04, 3.95, 4.02, 4.92, 6.26, 8.05, 7.89, 6.94, 8.67, 13.75, 17.38, 16.53, 15.05, 12.66, 9.68, 7.76, 6.21, 0.45, -0.63, -0.0, 1.58, 1.24, 0.61, -0.0, -0.0, -0.0, 6.7, 6.7, 6.96, 6.96, 6.96, 6.96, 6.96, 6.96, 7.33, 7.61, 7.61, 7.95, 8.24, 8.24, 8.53, 8.53, 8.53, 8.53, 8.53, 8.82, 8.5, 8.5, 8.5, 8.5, 8.5, 8.78, 8.78, 8.78, 9.02, 9.02, 9.02, 9.02, 9.08, 8.73, 8.73, 8.65, 8.29, 8.37, 8.0, 8.27, 7.9, 7.9, 7.9, 7.61, 7.61, 7.48, 7.48, 7.71, 7.31, 7.31, 7.01, 7.01, 6.79, 6.3, 5.57, 5.24, 4.8, 4.88, 4.44, 4.02, 4.02, 3.58, 3.58, 3.13, 3.13, 4.02, 4.47, 4.47, 4.92, 3.58, 3.13, 2.68, 3.95, 4.41, 4.92, 4.92, 4.92, 6.26, 6.28, 6.4, 7.89, 11.45, 14.54, 14.88, 13.65, 10.91, 6.8, 3.07, 1.7, -0.45, -1.34, -0.0, 0.57, -0.0, -0.0, -0.7, -0.7, -0.7, 6.96, 6.96, 6.96, 6.96, 6.7, 6.7, 6.96, 6.96, 6.96, 7.61, 7.61, 7.61, 7.95, 8.24, 8.24, 8.53, 8.53, 8.53, 8.82, 8.5, 8.5, 8.5, 8.5, 8.5, 8.78, 8.78, 8.78, 8.78, 8.78, 9.02, 8.78, 9.08, 8.73, 8.73, 8.65, 8.65, 8.29, 8.37, 8.0, 8.27, 7.9, 7.9, 7.61, 7.61, 7.23, 7.48, 7.48, 7.48, 7.31, 7.31, 7.09, 7.01, 6.79, 6.79, 5.99, 5.7, 5.24, 4.89, 4.88, 4.44, 4.02, 4.02, 3.58, 3.58, 3.13, 2.68, 3.13, 3.95, 4.38, 4.38, 3.51, 3.58, 3.58, 4.41, 4.85, 4.47, 4.02, 4.41, 5.16, 5.86, 6.79, 8.4, 9.9, 11.9, 12.59, 10.65, 1.4, -0.0, -0.0, -1.2, -0.95, -0.0, -0.0, -0.0, -0.73, -0.67, -0.67, -0.67, 6.96, 6.96, 6.96, 6.7, 6.7, 6.97, 6.97, 6.97, 7.24, 7.61, 7.61, 7.61, 7.61, 8.24, 8.24, 8.53, 8.82, 8.82, 8.5, 8.5, 8.5, 8.5, 8.78, 8.78, 8.78, 8.78, 8.78, 8.78, 8.78, 8.78, 9.08, 8.73, 8.73, 8.38, 8.65, 8.08, 8.37, 8.0, 8.0, 8.27, 7.9, 7.9, 7.76, 7.61, 7.61, 7.23, 7.48, 7.48, 7.48, 7.31, 7.2, 7.01, 6.6, 6.3, 6.04, 5.99, 5.7, 5.24, 4.89, 4.88, 4.44, 4.02, 4.02, 3.58, 3.13, 3.58, 2.68, 3.13, 3.47, 3.51, 3.51, 4.02, 3.58, 4.41, 4.41, 4.47, 4.47, 3.58, 4.41, 5.31, 6.07, 6.51, 7.35, 9.6, 12.56, 7.01, 1.2, -0.65, -1.9, -1.2, -0.7, -0.73, -0.7, -0.76, -1.6, -1.52, -1.52, -1.52, 6.96, 6.96, 6.7, 6.7, 6.97, 6.97, 6.97, 6.97, 6.97, 7.33, 7.33, 7.33, 7.61, 7.9, 8.24, 8.24, 8.82, 8.5, 8.5, 8.5, 8.5, 8.5, 8.78, 8.78, 8.78, 8.78, 8.78, 8.78, 8.78, 8.73, 8.73, 8.73, 8.38, 8.65, 8.08, 8.08, 8.0, 8.0, 8.0, 8.27, 7.9, 7.9, 8.15, 7.61, 7.61, 7.23, 7.48, 7.48, 7.48, 7.31, 7.2, 7.01, 7.01, 6.72, 6.3, 6.04, 5.57, 5.7, 5.24, 4.89, 4.88, 4.44, 4.02, 3.58, 3.13, 3.13, 2.68, 2.24, 2.68, 2.68, 3.13, 3.51, 4.02, 3.58, 3.95, 4.38, 3.95, 4.02, 4.47, 4.47, 5.31, 5.75, 5.59, 8.8, 13.86, 8.49, 1.86, -0.0, -2.5, -4.11, -2.72, -0.67, -0.7, -1.52, -2.35, -1.45, -1.45, -1.45, 6.96, 6.96, 6.7, 6.97, 6.97, 6.97, 6.97, 6.97, 6.97, 6.97, 7.33, 7.33, 7.33, 7.61, 7.93, 7.93, 8.22, 8.5, 8.5, 8.5, 8.5, 8.5, 8.78, 8.78, 8.78, 8.78, 8.78, 8.78, 8.73, 8.73, 8.73, 8.38, 8.65, 8.29, 8.08, 8.0, 8.0, 8.0, 8.0, 8.27, 8.27, 7.9, 7.9, 8.15, 7.76, 7.61, 7.61, 7.48, 7.48, 7.08, 7.2, 6.8, 7.01, 6.79, 6.3, 6.04, 5.99, 5.7, 5.7, 5.33, 4.89, 4.44, 4.43, 3.98, 3.53, 3.13, 2.24, 1.79, 1.79, 1.79, 3.58, 4.47, 4.47, 3.58, 3.47, 3.95, 3.95, 3.95, 4.41, 4.92, 4.92, 4.92, 5.75, 14.3, 15.18, 8.94, 2.12, -0.0, -2.53, -5.09, -4.02, -1.98, -1.27, -1.47, -2.2, -2.12, -2.12, -2.12, 6.7, 6.7, 6.7, 6.97, 6.97, 6.97, 6.97, 6.97, 6.97, 6.97, 7.33, 7.33, 7.61, 7.61, 7.61, 7.93, 7.93, 8.22, 8.5, 8.5, 8.5, 8.5, 8.78, 8.78, 8.78, 8.78, 8.78, 8.73, 8.73, 8.73, 8.73, 8.65, 8.65, 8.08, 8.37, 8.0, 8.0, 8.0, 8.0, 8.27, 8.27, 7.9, 7.9, 8.15, 8.15, 7.76, 7.76, 7.87, 7.48, 7.08, 7.2, 6.8, 7.01, 6.79, 6.3, 6.47, 6.04, 6.14, 5.7, 5.7, 5.33, 4.88, 4.44, 3.98, 3.53, 3.53, 2.63, 2.68, 2.24, 1.79, 2.68, 4.38, 4.02, 3.13, 2.12, 3.13, 3.95, 3.95, 5.09, 5.09, 5.29, 5.36, 9.36, 13.84, 14.23, 7.15, 1.2, -0.65, -2.98, -5.09, -4.36, -2.66, -1.8, -2.11, -2.2, -2.2, -2.2, -2.2, 6.7, 6.7, 6.7, 6.97, 6.97, 6.97, 6.97, 6.97, 6.97, 6.97, 6.97, 7.61, 7.61, 7.61, 7.61, 7.61, 7.93, 8.22, 8.22, 8.5, 8.5, 8.78, 8.78, 8.78, 8.78, 8.78, 8.45, 8.73, 8.73, 8.73, 8.65, 8.65, 8.08, 8.08, 8.0, 8.0, 8.0, 8.0, 8.0, 8.27, 8.27, 8.27, 7.9, 7.9, 8.15, 8.15, 7.76, 8.0, 7.48, 7.48, 7.31, 7.31, 7.01, 6.79, 6.79, 6.51, 6.47, 6.16, 6.16, 5.7, 5.24, 4.89, 4.88, 4.44, 3.98, 3.54, 3.53, 3.07, 2.24, 2.17, 2.12, 3.13, 3.58, 3.58, 3.47, 3.95, 4.02, 4.38, 4.57, 4.22, 4.57, 4.82, 7.11, 10.75, 11.45, 5.31, -0.0, -2.4, -2.98, -4.43, -4.43, -3.38, -2.88, -3.0, -2.8, -2.11, -2.11, -2.11, 6.7, 6.7, 6.97, 6.97, 6.97, 6.97, 6.97, 6.97, 6.97, 7.26, 7.26, 7.61, 7.61, 7.61, 7.61, 7.61, 7.61, 7.93, 8.22, 8.22, 8.5, 8.78, 8.78, 8.78, 8.45, 8.45, 8.73, 8.73, 8.73, 8.38, 8.65, 8.29, 8.08, 8.37, 8.0, 8.0, 8.0, 8.0, 8.27, 8.27, 8.27, 8.27, 7.9, 7.9, 8.15, 8.15, 8.15, 8.0, 8.0, 7.48, 7.71, 7.31, 7.09, 7.21, 6.79, 6.94, 6.51, 6.47, 6.16, 5.7, 5.7, 5.24, 4.77, 4.34, 4.3, 3.87, 3.87, 3.87, 3.87, 2.6, 2.12, 2.24, 3.13, 3.58, 4.02, 4.47, 4.47, 4.38, 3.93, 3.93, 3.58, 3.6, 4.47, 7.42, 8.91, 6.66, 1.24, -1.47, -2.2, -3.43, -5.09, -4.94, -4.37, -3.0, -2.4, -2.29, -2.29, -2.29, 6.7, 6.7, 6.97, 6.97, 6.97, 6.97, 6.97, 6.71, 6.98, 6.98, 6.98, 7.61, 7.61, 7.61, 7.61, 7.61, 7.61, 7.93, 8.22, 8.22, 8.22, 8.78, 8.78, 8.45, 8.45, 8.73, 8.73, 8.73, 8.38, 8.65, 8.65, 8.08, 8.08, 8.37, 8.0, 8.0, 8.0, 8.0, 8.27, 8.27, 8.27, 8.27, 7.9, 7.9, 8.15, 8.15, 8.15, 8.0, 8.0, 8.0, 7.81, 7.51, 7.51, 7.26, 7.26, 6.79, 6.94, 6.51, 6.47, 6.16, 5.7, 5.7, 5.24, 4.77, 4.34, 4.3, 4.3, 4.11, 4.11, 2.23, 1.86, 2.12, 2.12, 2.24, 3.13, 4.47, 4.38, 4.38, 3.58, 3.58, 2.84, 3.22, 3.47, 5.81, 8.46, 8.94, 3.82, -0.0, -2.2, -4.11, -6.35, -6.98, -4.94, -3.11, -2.98, -3.11, -3.11, -3.11, 6.97, 6.97, 6.97, 6.97, 6.97, 6.97, 6.71, 6.98, 6.98, 6.98, 6.98, 6.98, 7.32, 7.61, 7.61, 7.61, 7.61, 7.91, 8.22, 8.22, 8.22, 8.22, 8.78, 8.45, 8.73, 8.73, 8.73, 8.38, 8.38, 8.65, 8.08, 8.08, 8.37, 8.37, 8.0, 8.0, 8.0, 8.0, 8.27, 8.27, 8.27, 8.27, 7.9, 8.15, 8.15, 8.15, 8.15, 8.0, 8.0, 8.0, 7.81, 8.0, 7.58, 7.69, 7.26, 7.26, 6.94, 6.94, 6.47, 6.16, 6.16, 5.7, 5.7, 5.24, 4.8, 4.6, 4.6, 4.6, 4.4, 2.23, 2.23, 1.86, 2.12, 2.12, 3.74, 4.57, 4.15, 3.74, 3.58, 3.58, 3.6, 4.0, 4.66, 6.07, 9.36, 11.18, 7.15, 0.71, -3.07, -5.36, -6.9, -6.96, -5.72, -3.72, -3.22, -3.22, -3.22, -3.22, 6.97, 6.97, 6.97, 6.97, 6.97, 6.71, 6.98, 6.98, 6.98, 6.98, 6.98, 7.32, 7.32, 7.32, 7.32, 7.32, 7.6, 7.6, 7.9, 8.22, 8.22, 8.22, 8.19, 8.45, 8.73, 8.73, 8.38, 8.38, 8.65, 8.44, 8.08, 8.08, 8.37, 8.37, 8.0, 8.0, 8.0, 8.27, 8.27, 8.27, 8.27, 8.27, 7.9, 8.15, 8.15, 8.15, 8.0, 8.0, 8.0, 8.22, 7.81, 8.0, 8.0, 7.74, 7.69, 7.26, 7.26, 6.79, 6.94, 6.47, 6.16, 6.16, 5.7, 5.7, 5.09, 5.09, 5.09, 4.8, 4.8, 4.8, 4.0, 1.9, 1.58, 1.86, 2.8, 3.6, 3.6, 3.47, 4.66, 4.15, 4.15, 4.66, 6.02, 6.98, 10.16, 12.05, 9.81, 2.6, -1.24, -4.66, -6.25, -6.8, -6.32, -5.06, -3.64, -3.22, -3.22, -3.22, 6.58, 6.58, 6.97, 6.97, 6.71, 6.71, 6.98, 6.98, 6.98, 6.98, 6.98, 7.32, 7.32, 7.32, 7.32, 7.6, 7.6, 7.6, 7.9, 7.9, 7.9, 7.9, 8.19, 8.19, 8.73, 8.38, 8.15, 8.15, 8.44, 8.08, 8.08, 8.08, 8.37, 8.37, 8.0, 8.0, 8.0, 8.27, 8.27, 8.27, 8.27, 7.9, 8.15, 8.15, 8.15, 8.4, 8.0, 8.0, 8.0, 8.0, 8.22, 7.81, 8.0, 7.74, 7.74, 7.74, 7.69, 7.26, 6.94, 6.51, 6.47, 6.47, 6.04, 5.99, 5.57, 5.57, 5.51, 4.9, 4.8, 4.9, 4.55, 2.21, 1.86, 4.46, 2.23, 2.8, 3.74, 5.29, 5.29, 4.85, 4.85, 5.59, 6.16, 6.79, 10.02, 12.04, 11.18, 8.05, 2.6, -0.0, -2.86, -5.38, -6.01, -5.35, -4.29, -3.55, -3.55, -3.55, 6.33, 6.33, 6.71, 6.71, 6.71, 6.98, 6.98, 6.98, 6.98, 6.98, 6.98, 7.32, 7.32, 7.32, 7.32, 7.6, 7.6, 7.6, 7.6, 7.9, 7.9, 7.9, 7.9, 8.19, 8.15, 8.15, 8.15, 8.44, 8.08, 8.08, 8.08, 8.08, 8.37, 8.37, 8.0, 8.0, 8.0, 8.27, 8.27, 8.43, 8.27, 8.15, 8.15, 8.15, 8.15, 8.4, 8.0, 8.0, 8.0, 8.0, 7.81, 8.0, 8.0, 8.17, 8.17, 8.17, 7.74, 7.87, 7.4, 6.94, 6.94, 6.51, 6.47, 6.04, 5.99, 5.99, 5.81, 5.4, 5.31, 5.31, 5.08, 4.55, 4.0, 4.65, 2.23, 4.8, 5.09, 5.29, 4.85, 4.85, 5.09, 5.75, 5.82, 6.94, 9.11, 11.15, 11.18, 10.26, 10.16, 8.82, 4.46, -0.0, -3.4, -4.14, -3.47, -3.0, -3.0, -3.0, 6.33, 6.33, 6.71, 6.71, 6.71, 6.98, 6.98, 6.98, 6.98, 6.98, 6.98, 7.32, 7.32, 7.32, 7.32, 7.6, 7.6, 7.6, 7.6, 7.9, 7.9, 7.9, 7.9, 8.19, 8.15, 8.15, 8.15, 8.44, 8.08, 8.08, 8.08, 8.08, 8.37, 8.37, 8.0, 8.0, 8.0, 8.27, 8.27, 8.43, 8.27, 8.15, 8.15, 8.15, 8.15, 8.4, 8.0, 8.0, 8.0, 8.0, 7.81, 8.0, 8.0, 8.17, 8.17, 8.17, 7.74, 7.87, 7.4, 6.94, 6.94, 6.51, 6.47, 6.04, 5.99, 5.99, 5.81, 5.4, 5.31, 5.31, 5.08, 4.55, 4.0, 4.65, 2.23, 4.8, 5.29, 5.29, 4.85, 4.85, 5.09, 5.75, 5.82, 6.4, 8.14, 10.25, 11.18, 11.52, 11.4, 11.66, 11.45, 7.69, 0.78, -1.63, -2.2, -2.47, -2.47, -2.47]}, {"header": {"dx": 0.06612293990616946, "dy": 0.0552356325346848, "nx": 98, "ny": 59, "la1": 35.046912555036876, "la2": 31.78801023549047, "lo1": -121.43107172385933, "lo2": -114.95102361305473, "refTime": "2026041603", "parameterCategory": 1, "parameterNumber": 3}, "data": [-14.3, -14.08, -14.08, -13.44, -13.19, -12.27, -11.96, -11.36, -10.75, -10.4, -9.48, -8.22, -5.94, -2.53, -1.49, -0.54, 0.0, 0.0, 0.0, 0.0, 0.71, 0.85, 0.76, 0.0, 0.0, -0.85, -2.24, -3.2, -2.8, -3.04, -2.6, -2.68, -2.68, -2.6, -2.4, -2.15, -2.21, -2.15, -2.15, -2.53, -3.14, -3.79, -4.47, -5.46, -6.45, -7.58, -8.62, -5.29, 0.0, 3.79, 5.06, 4.56, 4.71, 4.83, 4.71, 4.8, 4.4, 3.91, 3.91, 3.91, 3.16, 3.02, 3.11, 3.11, 2.39, 2.31, 2.25, 2.25, 3.02, 3.11, 3.11, 3.11, 2.31, 1.5, 1.62, 1.56, 0.79, 0.7, 0.0, 0.0, 0.0, 0.71, 0.71, 0.54, 0.65, 0.71, 2.24, 3.95, 4.43, 4.47, 3.58, 3.51, 2.91, 3.07, 2.86, 2.53, 2.53, 2.53, -14.3, -14.08, -13.73, -13.73, -13.44, -12.86, -11.67, -11.63, -11.03, -10.43, -10.09, -8.53, -5.59, -2.98, -2.32, -1.3, 0.0, 0.0, 0.0, 0.0, 0.0, 0.0, 0.0, 0.0, 0.0, -0.76, -2.12, -3.2, -3.45, -3.2, -2.91, -3.07, -2.68, -2.24, -2.4, -2.5, -2.53, -2.41, -2.41, -2.84, -3.48, -5.06, -6.64, -7.82, -9.31, -8.86, -5.4, 0.0, 3.49, 4.81, 4.36, 4.03, 3.91, 4.28, 3.61, 3.95, 3.85, 3.07, 3.07, 3.07, 2.41, 2.21, 2.39, 2.39, 2.39, 2.31, 2.31, 2.21, 3.25, 3.25, 3.02, 3.11, 2.39, 1.5, 1.62, 1.62, 0.72, 0.7, 0.0, 0.0, 0.0, 0.71, 0.71, 0.54, 0.65, 0.71, 2.24, 3.95, 4.43, 4.47, 3.58, 3.51, 2.91, 3.07, 2.86, 2.53, 2.53, 2.53, -13.73, -13.73, -13.73, -13.73, -13.73, -13.19, -12.27, -11.96, -11.03, -10.43, -10.09, -8.78, -6.01, -3.64, -2.2, -1.55, 0.0, 0.0, -0.54, -0.71, -0.8, -0.8, -1.0, -0.85, -0.85, -1.6, -2.12, -2.6, -3.22, -3.83, -3.83, -2.91, -3.07, -2.24, -2.4, -2.21, -2.84, -3.07, -3.07, -3.72, -5.72, -7.61, -8.53, -8.76, -7.63, -4.71, 0.0, 3.84, 4.11, 4.01, 3.9, 3.2, 3.09, 3.15, 2.69, 2.39, 2.31, 2.34, 2.34, 2.25, 2.31, 2.28, 2.28, 2.39, 2.28, 2.28, 3.11, 3.25, 3.02, 3.25, 3.02, 3.02, 2.31, 2.39, 1.52, 1.47, 0.78, 0.8, 0.0, 0.0, 0.0, 0.57, 0.71, 0.65, 0.54, 2.12, 4.43, 5.16, 4.41, 3.58, 3.07, 3.07, 2.4, 2.15, 2.15, 2.5, 2.5, 3.07, -14.02, -13.73, -13.73, -13.73, -13.73, -13.15, -12.86, -11.67, -11.36, -10.72, -10.09, -9.66, -7.35, -3.72, -1.6, -1.49, -0.79, -0.87, -0.71, -0.71, -0.71, -1.0, -1.9, -2.21, -1.49, -1.58, -2.68, -2.6, -3.2, -3.83, -5.34, -5.34, -4.66, -3.13, -3.04, -2.53, -3.93, -3.91, -5.37, -6.39, -7.31, -7.59, -6.14, -3.91, -1.41, 0.7, 2.98, 3.72, 3.64, 3.11, 3.0, 2.26, 2.18, 2.31, 1.52, 1.47, 1.5, 1.56, 1.63, 1.56, 2.39, 2.28, 2.39, 2.39, 3.11, 3.11, 3.78, 4.31, 4.05, 4.87, 4.6, 3.85, 4.01, 2.7, 1.4, 0.0, 0.0, 0.0, 0.0, 0.0, 0.57, 0.8, 0.54, 0.65, 1.7, 3.51, 5.16, 4.66, 3.53, 3.13, 2.6, 2.6, 2.4, 1.86, 2.6, 3.07, 3.39, 3.82, -14.02, -14.02, -14.02, -13.38, -13.15, -13.15, -13.15, -12.27, -11.63, -10.72, -9.77, -9.94, -7.68, -4.11, -2.3, -2.53, -1.49, -0.76, -1.2, -1.9, -1.9, -1.9, -1.58, -0.8, -1.49, -2.12, -3.13, -3.39, -2.97, -3.95, -4.66, -5.86, -6.79, -7.56, -7.08, -6.8, -6.8, -6.87, -7.33, -6.7, -5.37, -2.88, -0.73, 0.0, 1.47, 2.29, 2.88, 3.22, 3.11, 3.33, 2.2, 1.55, 1.65, 1.49, 1.58, 0.77, 1.47, 1.54, 2.31, 2.21, 2.28, 2.39, 2.39, 3.11, 3.11, 3.21, 3.88, 4.83, 6.05, 6.2, 6.09, 6.21, 5.8, 4.48, 2.41, 0.0, -0.77, -1.54, 0.0, 0.67, 0.57, 0.0, 0.0, 0.95, 2.4, 3.14, 3.07, 2.91, 2.6, 2.24, 2.24, 2.68, 2.6, 2.68, 3.58, 4.02, 4.3, 4.24, -13.66, -13.66, -13.66, -13.66, -13.15, -13.15, -13.15, -13.15, -12.22, -10.99, -10.06, -9.3, -7.06, -4.29, -3.07, -2.3, -2.07, -2.3, -3.07, -4.84, -5.75, -6.21, -4.92, -2.68, -2.12, -2.97, -4.92, -5.26, -4.82, -3.47, -3.51, -4.41, -5.77, -8.05, -8.38, -8.19, -7.35, -6.39, -5.37, -3.49, -1.9, -0.85, 0.0, 0.0, 1.52, 3.11, 3.64, 3.64, 3.9, 3.0, 2.35, 1.45, 1.45, 1.55, 1.49, 1.52, 2.35, 2.28, 3.02, 2.95, 2.31, 2.21, 2.39, 2.28, 3.06, 4.6, 5.21, 5.76, 6.14, 6.45, 5.99, 5.6, 6.1, 5.38, 3.87, 1.58, -0.73, -1.52, 0.0, 0.66, 0.0, -0.6, 0.0, 1.7, 2.15, 1.33, 1.4, 1.24, 0.95, 1.26, 2.6, 3.13, 3.13, 3.97, 4.87, 4.92, 4.73, 4.73, -13.66, -13.66, -13.66, -13.66, -13.15, -13.15, -13.15, -12.8, -12.22, -11.58, -10.01, -8.65, -6.39, -4.29, -4.46, -2.53, -2.98, -4.01, -4.74, -5.09, -5.69, -6.79, -7.15, -8.05, -7.6, -6.71, -6.71, -6.88, -5.94, -5.09, -3.04, -3.13, -4.02, -5.75, -6.55, -5.64, -6.02, -3.48, -2.21, -1.26, -1.2, -0.6, 0.0, 0.76, 2.2, 4.01, 4.95, 4.56, 4.56, 3.35, 3.35, 2.35, 2.26, 2.26, 2.31, 2.35, 2.28, 2.28, 2.31, 2.34, 1.52, 1.56, 1.54, 2.31, 4.56, 6.32, 6.42, 5.64, 4.71, 3.95, 3.16, 2.31, 2.15, 2.37, 2.25, 1.61, 0.79, 0.0, 0.0, 0.0, 0.0, -1.58, 0.0, 1.86, 1.2, -0.0, -0.0, -0.0, -0.0, 1.24, 2.68, 3.39, 3.97, 6.22, 7.15, 5.77, 5.44, 4.52, -13.58, -13.66, -13.66, -13.66, -13.44, -13.15, -12.8, -12.56, -12.51, -11.87, -10.51, -9.1, -6.44, -4.01, -5.2, -3.9, -3.64, -4.29, -4.36, -4.11, -3.07, -2.2, -3.48, -5.44, -7.15, -6.26, -3.95, -3.6, -4.98, -5.4, -5.73, -6.26, -6.26, -6.61, -5.16, -3.97, -3.13, -1.6, -0.95, -0.63, 0.0, 0.89, 0.95, 1.58, 2.53, 3.48, 4.29, 4.56, 3.91, 4.21, 2.2, 2.35, 2.4, 2.31, 2.23, 2.28, 1.54, 0.78, 0.76, 0.0, 0.0, 0.0, 1.55, 3.9, 6.44, 7.02, 6.31, 3.78, 1.6, 0.74, 0.0, 0.0, 0.0, -0.76, 0.0, 0.0, 0.76, 1.49, 0.81, 0.0, -0.63, -1.13, 0.0, 1.7, 1.26, -0.0, -1.16, -0.61, -0.0, 2.53, 3.45, 4.0, 5.86, 7.89, 7.15, 6.22, 4.93, 4.93, -13.58, -13.58, -13.3, -13.09, -13.09, -12.8, -12.8, -12.51, -12.16, -11.8, -10.7, -10.16, -9.1, -8.43, -7.41, -6.39, -5.69, -5.69, -4.43, -3.22, -1.98, -1.05, -2.4, -2.35, -4.11, -3.6, -1.79, -0.6, -2.23, -5.94, -7.15, -7.6, -7.6, -5.81, -3.58, -2.24, -1.79, -0.89, -0.63, 0.0, 0.8, 1.58, 1.58, 1.58, 0.85, 1.6, 0.98, 1.99, 3.2, 3.09, 3.14, 3.2, 3.09, 2.31, 1.67, 0.77, 0.0, 0.0, 0.0, -0.76, -0.82, 0.0, 2.4, 5.46, 6.79, 6.14, 4.6, 2.28, 0.0, -0.8, -1.58, -1.44, -1.47, -1.39, -1.39, -0.78, 0.0, 0.0, 0.0, 0.0, 0.0, 0.0, 1.35, 1.4, 1.2, -0.0, -1.2, -0.0, 1.84, 4.12, 4.73, 5.6, 6.64, 6.79, 6.26, 5.77, 4.93, 4.52, -13.58, -13.58, -13.58, -13.09, -13.09, -13.09, -12.8, -12.51, -12.45, -11.8, -11.44, -11.5, -10.83, -11.6, -10.63, -10.04, -10.63, -11.02, -10.21, -9.75, -9.75, -9.4, -8.58, -7.47, -6.64, -5.37, -1.34, -0.0, -1.34, -3.58, -3.58, -2.68, -2.24, -1.79, -1.79, -2.24, -0.89, 0.0, 0.0, 0.0, 0.7, 1.2, 1.49, 0.85, 0.65, 0.0, 0.0, 0.0, 1.6, 3.2, 4.03, 4.03, 3.09, 2.26, 1.55, 0.79, 0.0, 0.0, -0.77, -1.52, 0.0, 1.66, 5.75, 6.44, 6.73, 5.21, 4.6, 3.6, 0.7, -0.73, -1.47, -2.12, -1.44, -1.4, -1.36, -1.36, -1.52, -1.58, -1.36, 0.0, 1.27, 3.64, 3.47, 3.97, 1.88, 0.6, 0.0, 1.34, 3.51, 5.6, 6.25, 5.86, 6.0, 5.86, 5.36, 4.87, 4.73, 4.73, -13.21, -13.58, -13.38, -13.09, -13.09, -13.09, -13.09, -12.51, -12.09, -11.72, -11.62, -11.9, -11.72, -11.62, -11.64, -11.44, -12.62, -12.11, -12.11, -12.35, -13.29, -13.72, -13.23, -11.5, -10.8, -4.82, -1.2, -0.0, -0.89, -2.23, -1.7, -0.45, -0.0, -0.0, -0.89, -1.79, -0.95, 0.0, 0.71, 0.7, 1.66, 1.2, 0.85, 1.3, 0.0, 0.0, 0.0, 0.73, 1.66, 3.35, 4.74, 5.37, 4.95, 4.65, 3.72, 4.11, 3.72, 1.55, 0.0, 0.0, 1.58, 5.34, 7.35, 8.0, 8.63, 9.27, 8.88, 7.07, 3.84, 0.65, 0.0, 0.0, -0.69, -1.36, -2.06, -2.11, -3.61, -2.99, -2.2, 0.0, 2.53, 4.74, 6.28, 5.78, 5.59, 2.88, 1.33, 2.07, 4.66, 4.92, 5.44, 4.93, 4.93, 5.44, 4.87, 4.47, 4.43, 4.3, -13.21, -13.01, -13.38, -13.09, -13.09, -13.09, -13.09, -12.51, -12.09, -11.72, -11.72, -12.27, -12.0, -11.44, -10.3, -9.66, -8.29, -7.9, -7.76, -7.9, -7.09, -6.52, -5.88, -7.28, -5.59, -4.09, -1.79, -0.0, -0.0, -0.89, -0.89, 0.0, -0.0, 0.0, 0.0, 0.0, 0.0, 0.99, 1.24, 1.4, 2.15, 2.15, 1.49, 1.14, 0.0, 0.0, 0.71, 2.53, 3.72, 4.0, 4.4, 4.84, 6.0, 6.79, 7.21, 7.71, 7.6, 5.09, 0.95, 1.34, 6.26, 9.54, 10.01, 9.83, 11.4, 13.21, 13.05, 10.75, 7.35, 5.46, 4.43, 2.8, 0.72, -0.78, -2.4, -3.21, -3.8, -1.4, 0.0, 2.21, 2.53, 4.43, 4.71, 6.31, 7.15, 6.87, 4.28, 2.72, 3.43, 4.24, 4.87, 4.52, 5.44, 4.73, 4.43, 4.02, 4.02, 4.43, -13.21, -13.01, -13.01, -13.38, -13.09, -13.09, -12.73, -12.45, -12.37, -11.8, -11.72, -12.27, -12.37, -11.87, -10.4, -9.17, -6.67, -4.47, -4.12, -3.84, -3.37, -2.17, -1.71, -0.55, 0.0, 0.0, 0.0, 0.0, -0.0, -0.0, -0.0, -0.0, 0.0, 0.0, 0.6, 0.6, 1.26, 1.86, 1.86, 1.49, 1.4, 1.6, 1.49, 0.76, 0.0, 0.0, 1.58, 2.54, 2.54, 2.23, 2.8, 2.8, 3.04, 3.58, 3.58, 3.9, 4.8, 4.65, 0.71, 1.79, 8.01, 10.62, 10.75, 10.93, 12.05, 12.05, 11.6, 10.62, 8.4, 8.63, 8.03, 6.64, 3.0, 0.0, -2.35, -3.2, -0.65, 0.6, 3.22, 4.07, 4.29, 2.88, 2.72, 2.26, 6.05, 5.95, 5.41, 4.37, 4.11, 4.0, 4.87, 5.32, 5.2, 4.24, 3.97, 3.58, 4.02, 4.47, -13.48, -13.01, -13.01, -13.38, -13.09, -13.09, -12.51, -12.45, -12.37, -11.8, -12.09, -11.8, -12.0, -11.87, -10.99, -10.09, -7.93, -5.72, -4.46, -3.81, -3.32, -3.42, -2.84, -1.72, -1.16, -0.56, -0.57, -0.55, -0.57, -0.0, -0.0, -0.0, 1.34, 0.63, 0.6, 1.26, 1.86, 1.86, 1.58, 1.24, 0.65, 0.0, 0.0, 0.0, 0.0, 1.4, 1.79, 2.12, 1.6, 1.6, 0.95, 0.0, 0.0, 0.0, 0.0, 0.0, 0.0, 0.0, 0.0, 1.6, 7.45, 9.39, 10.04, 10.22, 9.36, 8.94, 8.49, 7.15, 7.74, 6.44, 7.64, 6.32, 3.79, 0.0, -0.65, 0.0, 1.86, 4.19, 4.65, 4.71, 4.0, 2.31, 0.71, 0.0, 2.66, 3.06, 3.95, 4.6, 5.06, 5.31, 6.13, 4.43, 5.36, 5.36, 4.47, 3.58, 4.02, 4.02, -13.48, -13.21, -13.01, -13.38, -13.09, -13.09, -12.51, -12.45, -12.09, -11.8, -11.8, -11.8, -11.8, -11.52, -10.94, -10.09, -9.17, -7.61, -6.34, -5.46, -5.29, -4.57, -4.02, -3.47, -2.8, -2.28, -1.66, -1.14, -1.63, -1.0, 0.0, 0.0, 1.58, 1.9, 1.6, 4.24, 4.8, 2.8, 3.48, 0.71, 0.0, 0.0, 0.0, 0.0, 0.0, 3.82, 4.92, 4.02, 3.2, 0.95, 0.0, 0.0, 0.0, 0.0, 0.0, 0.0, -0.63, -3.07, -1.4, 2.95, 6.26, 5.81, 5.26, 4.98, 4.98, 4.34, 3.58, 2.97, 4.09, 4.65, 4.46, 2.86, 1.6, 0.45, 0.63, 2.86, 4.81, 5.59, 4.96, 4.71, 4.6, 3.21, 0.73, 0.0, -0.61, 0.0, 2.26, 3.69, 5.69, 6.7, 7.03, 5.6, 4.87, 5.81, 6.26, 4.02, 4.02, 4.02, -13.48, -13.21, -13.01, -13.38, -13.38, -13.09, -12.73, -12.45, -12.09, -11.8, -11.8, -11.8, -11.8, -11.23, -10.36, -10.36, -9.48, -8.87, -7.33, -6.7, -5.67, -5.23, -4.51, -4.02, -2.82, -2.28, -1.72, -1.11, -1.09, -1.07, -0.53, 0.0, 0.0, 0.0, 1.27, 1.86, 4.15, 3.83, 4.11, 1.19, 0.0, 0.0, 0.0, 0.0, 2.48, 4.24, 4.47, 4.02, 3.6, 2.53, 1.6, 0.0, 0.85, 0.65, 0.65, 0.85, 0.0, -1.99, 0.0, 4.22, 5.82, 6.13, 5.01, 4.11, 0.85, 0.71, 0.0, 0.8, 2.23, 3.6, 1.7, 0.4, -0.0, 0.63, 1.86, 4.19, 6.68, 7.18, 6.31, 6.31, 6.2, 5.52, 3.27, 0.81, 0.0, 0.0, 0.61, 2.79, 5.46, 6.44, 6.7, 5.44, 5.78, 6.22, 6.55, 4.43, 3.98, 3.98, -13.48, -13.48, -13.01, -13.01, -13.38, -12.73, -12.73, -12.45, -12.09, -11.87, -11.8, -11.8, -11.23, -11.23, -10.65, -10.3, -9.48, -9.17, -8.24, -6.96, -6.29, -5.86, -4.51, -3.5, -2.19, -1.16, -1.14, -0.57, 0.0, 0.0, -0.56, -0.54, 0.0, 0.0, 0.71, 1.58, 2.23, 1.98, 1.13, 0.0, 0.0, 0.0, 0.0, 0.65, 2.73, 3.72, 4.24, 4.24, 3.72, 2.48, 2.73, 2.2, 2.4, 2.6, 2.32, 2.16, 1.23, 0.0, 3.6, 5.2, 6.64, 5.37, 4.43, 2.6, 1.14, 0.0, 0.0, 0.0, 0.95, 0.95, 0.0, -1.24, -0.71, 0.0, 1.9, 5.46, 8.68, 9.48, 8.66, 8.01, 7.82, 6.31, 4.83, 3.47, 2.98, 3.22, 1.9, 3.45, 5.43, 6.07, 6.35, 5.69, 5.2, 5.2, 5.64, 5.2, 4.3, 4.3, -13.48, -13.3, -13.01, -13.01, -13.01, -13.01, -13.01, -12.45, -12.45, -11.87, -11.8, -11.44, -11.23, -10.65, -10.3, -9.72, -9.77, -9.19, -8.24, -6.94, -5.62, -5.17, -4.51, -2.84, -1.66, -0.57, -0.57, -0.57, -0.55, -0.58, -1.12, -1.11, 0.0, 0.0, 0.55, 0.0, 0.0, 0.0, 0.0, 0.0, 0.0, 0.0, 0.0, 0.85, 2.73, 3.72, 4.09, 4.09, 2.73, 2.4, 2.6, 2.6, 2.32, 2.32, 3.22, 3.45, 3.68, 4.75, 4.46, 5.44, 5.44, 4.46, 3.68, 2.49, 1.23, 0.0, 0.0, 0.0, -1.58, -2.21, -1.9, -1.24, 0.0, 1.35, 3.11, 4.81, 6.32, 7.12, 7.69, 7.12, 5.76, 4.71, 3.88, 4.22, 4.74, 5.46, 3.49, 4.84, 4.4, 3.83, 6.07, 6.64, 5.2, 4.93, 4.93, 4.93, 5.2, 5.2, -13.3, -13.3, -13.01, -13.01, -13.01, -13.01, -13.01, -12.8, -12.45, -11.87, -11.52, -11.23, -10.88, -10.3, -10.23, -10.24, -9.72, -9.48, -8.24, -6.29, -5.8, -5.77, -5.36, -4.68, -3.02, -3.34, -2.25, -2.25, -2.34, -2.87, -2.28, -0.56, 0.0, 0.0, 0.0, 0.0, -1.58, -2.84, -2.29, -1.08, -0.79, -0.7, 0.0, 1.3, 2.73, 3.48, 3.79, 2.73, 2.73, 2.4, 2.6, 2.16, 2.32, 3.76, 4.74, 5.37, 4.75, 4.75, 5.69, 4.46, 4.46, 3.4, 2.26, 0.73, 0.0, 0.0, 0.0, 0.0, -1.41, -2.32, 0.0, 1.58, 3.1, 3.87, 3.73, 1.58, 0.0, 0.0, 0.77, 2.28, 1.54, 0.78, 0.76, 2.2, 3.43, 3.79, 2.79, 3.49, 3.83, 2.91, 4.24, 6.07, 5.09, 4.4, 4.4, 4.8, 3.72, 3.72, -12.93, -13.3, -13.3, -13.01, -13.01, -12.65, -12.65, -12.45, -12.16, -11.87, -11.52, -11.23, -10.65, -10.59, -10.59, -9.42, -9.42, -9.37, -8.6, -7.08, -7.25, -7.1, -7.31, -7.12, -7.24, -6.45, -5.63, -4.6, -4.57, -3.94, -1.63, 0.0, 0.0, 0.54, 0.54, 0.0, -1.13, -2.2, -2.16, -2.14, -1.76, -0.57, 0.0, 1.14, 2.4, 2.6, 2.4, 2.4, 2.2, 2.2, 2.4, 2.6, 3.49, 5.01, 2.86, 3.84, 5.69, 4.11, 4.01, 3.4, 2.26, 2.49, 1.23, 1.03, 0.0, 0.0, 0.8, 1.58, 2.3, 2.51, 3.95, 4.61, 4.79, 3.99, 1.54, -1.55, -4.71, -6.05, -3.07, -1.56, 0.0, 0.0, 0.0, 1.27, 2.07, 3.48, 3.78, 4.66, 3.07, 2.91, 2.91, 3.83, 4.46, 3.45, 3.6, 3.83, 3.49, 3.49, -12.93, -12.93, -12.93, -12.65, -12.65, -12.45, -12.45, -12.45, -12.45, -11.58, -11.52, -11.23, -10.65, -10.59, -10.3, -9.72, -9.42, -9.37, -9.3, -9.23, -9.31, -8.86, -8.86, -8.59, -8.23, -7.6, -6.31, -5.26, -4.63, -2.89, -1.07, 0.0, 0.0, 0.59, 0.51, 0.53, 0.0, -1.13, -1.73, -1.8, -1.76, -0.56, 0.0, 1.12, 1.7, 2.16, 2.4, 2.4, 1.19, 1.19, 1.3, 2.4, 4.65, 5.81, 5.75, 3.45, 4.81, 5.72, 5.03, 2.32, 2.16, 2.16, 1.23, 0.0, 0.76, 1.58, 2.68, 4.85, 6.28, 6.44, 7.64, 7.54, 5.51, 0.78, -1.51, -5.35, -10.47, -10.9, -9.23, -6.31, -2.39, -0.74, 0.74, 2.66, 4.01, 3.49, 4.93, 6.36, 6.64, 3.6, 2.91, 3.07, 3.14, 3.45, 3.07, 3.45, 3.14, 3.14, -12.93, -12.93, -12.93, -12.93, -12.73, -12.73, -12.37, -12.45, -12.45, -11.87, -11.52, -10.94, -10.65, -10.3, -10.06, -9.72, -9.42, -9.08, -9.72, -10.09, -9.21, -8.87, -8.24, -8.59, -8.23, -7.57, -6.27, -5.2, -3.45, -1.69, -0.57, 0.0, 0.0, 0.0, 0.58, 0.54, 0.0, 0.0, -0.57, -1.19, -1.67, -1.14, 0.0, 0.0, 1.16, 1.57, 2.4, 1.19, 1.19, 1.19, 2.73, 3.48, 5.2, 5.81, 5.81, 5.75, 5.05, 7.03, 6.87, 4.02, 0.85, 0.71, 0.76, 0.87, 1.74, 3.95, 5.81, 4.47, 5.31, 6.61, 7.4, 7.81, 5.52, 0.74, -6.24, -8.22, -10.47, -12.39, -12.5, -10.04, -6.24, -2.82, 0.0, 2.88, 4.12, 4.93, 6.07, 6.07, 6.25, 4.73, 2.53, 2.5, 2.5, 3.07, 3.07, 3.07, 2.84, 2.84, -12.93, -12.93, -12.93, -12.73, -12.37, -12.37, -12.37, -12.37, -12.09, -11.87, -11.52, -10.94, -10.65, -10.3, -9.72, -9.72, -9.13, -9.13, -9.72, -9.8, -8.87, -7.96, -7.33, -7.33, -7.33, -6.92, -5.8, -4.68, -3.53, -2.25, -1.18, -0.57, -0.57, 0.0, 0.0, 0.0, 0.0, 0.0, 0.0, -0.57, -1.08, -1.19, -0.54, 0.0, 0.0, 1.23, 1.3, 1.19, 1.41, 1.41, 2.73, 4.8, 4.8, 5.2, 5.4, 5.4, 4.24, 5.6, 6.52, 5.43, 2.53, 0.8, 0.8, 1.58, 3.47, 4.85, 5.31, 4.47, 3.13, 3.58, 1.79, 0.95, 0.63, 0.0, -3.82, -4.4, -5.69, -7.92, -10.26, -10.8, -8.49, -4.46, 0.0, 1.84, 3.45, 4.24, 4.24, 4.0, 4.84, 5.09, 3.14, 2.21, 2.15, 2.8, 2.68, 2.79, 2.51, 2.51, -12.37, -12.37, -12.37, -12.37, -12.37, -12.37, -12.37, -11.8, -11.8, -11.52, -11.28, -10.94, -10.36, -10.3, -9.72, -9.72, -9.46, -9.46, -9.17, -9.19, -8.59, -7.59, -6.94, -6.56, -6.29, -6.53, -5.83, -5.17, -4.02, -2.87, -2.35, -1.71, -1.16, -0.59, -0.56, 0.0, 0.0, 0.0, 0.0, -0.61, -0.55, -1.08, -1.08, -0.55, 0.0, 0.57, 1.3, 1.19, 1.19, 2.73, 3.79, 3.79, 4.09, 4.8, 5.2, 5.2, 2.6, 2.8, 3.93, 6.18, 4.43, 1.49, 0.95, 2.54, 3.95, 5.31, 5.75, 7.06, 4.41, 1.79, 0.0, -2.53, -0.65, 0.65, 2.16, 2.6, 2.4, -1.19, -6.32, -8.14, -7.56, -4.46, -0.61, 1.2, 3.07, 3.53, 3.32, 3.07, 3.83, 5.09, 4.46, 3.07, 3.07, 2.8, 2.5, 2.21, 1.84, 1.84, -12.37, -12.37, -12.37, -12.37, -12.37, -12.37, -11.8, -11.8, -11.8, -11.8, -11.28, -10.94, -10.69, -10.36, -10.06, -9.72, -9.46, -9.46, -9.17, -8.87, -8.59, -8.23, -7.59, -6.94, -6.29, -5.86, -5.86, -4.72, -4.05, -3.39, -2.9, -2.25, -1.63, -1.16, -1.11, -0.56, -0.56, -1.07, -1.18, -1.12, -1.05, -1.07, -1.19, -0.55, 0.0, 0.0, 0.0, 0.61, 1.07, 1.7, 1.73, 2.6, 2.73, 3.72, 4.66, 4.77, 4.24, 1.7, 2.12, 2.21, 3.97, 2.29, 1.26, 2.24, 4.38, 4.85, 5.31, 5.77, 5.31, 1.2, -1.4, -3.33, -1.11, 2.31, 4.65, 7.13, 7.6, 4.07, -1.03, -4.4, -5.2, -3.78, -1.27, 0.57, 2.6, 3.07, 3.32, 3.32, 4.24, 5.86, 6.64, 5.69, 3.72, 2.86, 1.9, 1.88, 1.16, 1.16, -12.37, -12.37, -12.37, -12.37, -12.37, -12.37, -11.8, -11.8, -11.44, -11.23, -11.23, -10.94, -10.69, -10.36, -9.77, -9.72, -9.46, -9.17, -9.17, -8.58, -8.58, -7.96, -7.59, -7.19, -6.53, -5.86, -5.2, -4.54, -4.08, -3.42, -3.27, -2.93, -2.28, -1.65, -1.65, -1.18, -1.12, -1.12, -1.69, -1.71, -1.73, -1.65, -1.14, -0.58, 0.0, 0.0, 0.54, 0.54, 0.59, 0.59, 1.07, 1.23, 1.19, 2.84, 4.24, 4.66, 3.72, 3.6, 3.2, 1.6, 0.76, 3.4, 3.22, 3.2, 3.95, 4.41, 4.85, 4.41, 4.66, 2.6, 0.0, -1.05, 0.0, 1.54, 5.38, 8.36, 8.51, 4.84, 0.0, -2.53, -5.05, -4.11, -1.84, 0.0, 2.17, 3.07, 3.32, 3.82, 4.66, 4.93, 4.73, 6.35, 4.43, 3.16, 1.84, 1.16, 0.61, 0.61, -12.27, -12.27, -12.0, -11.8, -11.8, -11.8, -11.8, -11.8, -11.23, -11.23, -11.23, -11.23, -10.69, -10.36, -10.09, -9.77, -9.46, -9.17, -8.87, -8.58, -8.58, -8.24, -7.59, -7.59, -6.94, -6.29, -5.2, -4.54, -4.08, -3.42, -3.45, -2.8, -2.3, -2.3, -1.75, -1.75, -1.75, -1.75, -1.67, -1.78, -1.69, -1.69, -1.16, -0.56, 0.0, 0.0, 0.0, 0.0, 0.0, 0.0, 0.54, 0.55, 0.59, 1.2, 1.6, 2.12, 3.35, 3.2, 1.79, 1.34, 0.8, 1.47, 2.32, 3.16, 5.4, 4.38, 3.51, 2.6, 2.53, 0.76, 0.0, -0.81, -0.83, 0.0, 4.71, 6.97, 5.41, 2.01, 0.78, -1.2, -3.32, -3.07, -2.15, 0.0, 0.6, 0.99, 2.4, 3.74, 4.4, 3.84, 3.48, 3.38, 4.29, 2.98, 1.8, 1.33, 0.61, 0.61, -12.09, -12.09, -11.8, -11.8, -11.8, -11.8, -11.8, -11.44, -11.23, -10.88, -10.88, -10.88, -10.65, -10.36, -10.36, -9.77, -9.48, -9.17, -8.87, -8.87, -8.24, -8.24, -7.59, -7.59, -6.94, -6.29, -5.64, -5.2, -4.76, -4.08, -3.42, -2.93, -2.8, -2.3, -2.3, -2.3, -2.3, -2.3, -2.19, -1.78, -1.69, -1.69, -1.16, -0.55, 0.0, 0.0, 0.0, 0.0, 0.0, 0.0, 0.0, 0.0, 0.0, 0.0, 1.58, 1.6, 2.84, 3.2, 2.24, 1.79, 1.26, 0.7, 0.81, 3.16, 4.4, 5.81, 2.23, 0.8, 0.0, 0.0, 0.0, 0.0, -1.52, -1.55, 0.0, 0.0, 0.0, 0.0, 0.72, 0.0, -1.2, -1.61, -0.99, 0.0, 0.0, 0.0, 1.58, 2.5, 2.84, 2.73, 1.41, 1.35, 3.0, 2.6, 2.0, 1.13, 0.51, 0.51, -12.09, -12.09, -11.8, -11.8, -11.8, -11.44, -11.44, -11.23, -11.23, -10.88, -10.88, -10.65, -10.65, -10.36, -10.36, -10.09, -9.48, -9.17, -8.87, -8.87, -8.24, -8.24, -8.24, -7.6, -6.94, -6.96, -6.31, -5.67, -5.23, -4.57, -4.08, -3.42, -3.45, -2.93, -2.8, -2.8, -2.97, -2.3, -2.3, -2.19, -2.21, -1.71, -1.73, -0.78, 0.0, 0.0, 0.0, -1.2, -1.12, -0.58, -0.54, -0.55, -0.59, 0.0, 0.99, 2.23, 3.2, 3.2, 1.6, 1.2, 0.6, 0.0, 0.7, 2.21, 2.5, 3.22, 3.58, 1.49, 0.0, -1.74, -0.7, 0.0, -0.79, -3.2, -6.32, -7.59, -5.13, -1.49, 0.0, 1.44, 0.0, 0.0, 0.0, 0.0, 0.67, 1.36, 2.2, 1.16, 0.59, 0.66, 0.73, 0.7, 1.36, 1.3, 1.11, 1.13, 0.59, 0.59, -11.72, -11.72, -11.72, -11.44, -11.44, -11.23, -11.23, -11.23, -10.88, -10.88, -10.88, -10.59, -10.3, -10.65, -10.36, -10.09, -9.77, -9.48, -8.87, -8.87, -8.24, -8.24, -7.6, -7.33, -6.96, -6.7, -6.31, -5.67, -5.23, -4.57, -4.57, -4.08, -3.91, -3.42, -3.45, -3.45, -2.8, -2.8, -2.83, -2.3, -2.33, -2.37, -1.71, -1.76, -1.14, 0.0, 0.0, -1.12, -1.7, -1.73, -1.76, -1.8, -1.61, 0.0, 1.24, 1.9, 1.9, 1.9, 0.95, 0.95, 0.6, 0.0, 0.65, 1.49, 1.49, 1.49, 2.5, 4.8, 2.6, 0.0, -2.21, -0.88, 0.0, 0.0, -4.6, -7.73, -6.97, -4.5, -1.47, 0.0, 0.77, 0.0, 0.0, 0.53, 2.19, 3.44, 2.75, 1.36, 0.0, 0.0, 0.76, 0.72, 1.4, 1.47, 0.66, 0.59, 0.61, 0.61, -11.72, -11.72, -11.72, -11.23, -11.23, -11.23, -11.23, -11.23, -10.88, -10.88, -10.94, -10.59, -10.59, -10.3, -10.06, -9.77, -9.77, -9.48, -9.48, -8.58, -8.24, -7.96, -7.6, -7.61, -6.97, -6.97, -6.33, -5.69, -5.26, -5.02, -4.57, -4.57, -4.57, -4.08, -3.91, -3.42, -3.45, -3.45, -2.97, -2.83, -2.86, -2.21, -2.23, -2.26, -2.14, -2.47, -1.52, -1.8, -1.7, -1.57, -1.76, -1.27, -0.59, 0.0, 1.4, 1.88, 1.61, 1.49, 1.24, 0.6, 0.6, 0.57, 1.24, 0.54, 0.0, 0.0, 0.6, 1.6, 1.49, 0.0, -0.85, 0.0, 1.66, 3.25, 0.78, -3.96, -6.77, -6.87, -4.6, -3.11, -1.38, 0.0, 0.0, 1.65, 3.32, 3.91, 3.89, 2.76, 2.17, 0.74, 0.72, 0.69, 0.71, 1.32, 0.63, 0.51, 0.53, 0.53, -11.72, -11.72, -11.72, -11.52, -11.23, -11.23, -10.88, -10.88, -10.88, -10.65, -10.59, -10.59, -10.59, -10.3, -10.06, -10.06, -9.77, -9.48, -9.19, -8.87, -8.58, -7.96, -7.89, -7.61, -6.97, -6.71, -6.33, -5.95, -5.52, -4.63, -5.26, -5.02, -4.57, -4.57, -4.57, -4.08, -3.91, -3.94, -3.45, -3.49, -2.83, -2.86, -2.89, -2.92, -2.75, -3.4, -2.92, -1.63, -1.14, -1.16, -1.16, -0.54, 0.0, 0.0, 0.59, 1.16, 1.4, 1.2, 1.24, 1.24, 0.6, 0.8, 0.71, 0.0, 0.0, 0.0, 0.0, 0.0, 0.0, 0.0, 0.0, 0.95, 1.6, 1.96, 2.35, 0.0, -3.76, -5.49, -5.49, -4.05, -2.13, 0.0, 1.44, 2.77, 3.39, 3.84, 3.96, 3.99, 2.95, 2.17, 0.69, 0.0, 0.0, 0.0, 1.26, 0.59, 0.0, 0.0, -11.35, -11.35, -11.16, -11.16, -10.88, -10.88, -10.88, -10.88, -10.65, -10.65, -10.59, -10.59, -10.59, -10.59, -9.72, -10.06, -9.77, -9.48, -9.48, -9.48, -8.58, -7.96, -8.24, -7.61, -6.97, -6.71, -6.34, -6.34, -5.7, -5.52, -5.32, -5.29, -5.26, -5.02, -5.02, -4.57, -4.57, -4.12, -3.94, -3.49, -3.32, -3.52, -3.35, -2.89, -2.92, -3.4, -2.73, -2.4, -1.73, -1.76, -1.12, -0.53, 0.0, 0.0, 0.0, 0.59, 0.61, 1.2, 1.2, 1.49, 1.9, 0.8, 1.41, 0.71, 0.71, 0.0, 0.0, -0.57, -1.24, -0.87, 0.66, 1.49, 0.57, -1.41, -1.51, -0.77, -0.76, -1.33, -0.65, -0.67, 0.0, 1.41, 2.13, 2.81, 2.34, 2.32, 2.87, 2.9, 3.11, 1.47, 0.81, 0.0, -0.69, -0.65, 0.0, 0.66, 0.53, 0.53, -11.35, -11.35, -11.16, -11.16, -11.16, -10.88, -10.65, -10.65, -10.65, -10.3, -10.59, -10.59, -10.59, -10.01, -9.72, -9.72, -9.72, -9.46, -9.17, -9.17, -8.87, -8.24, -8.24, -7.61, -6.97, -6.71, -6.61, -6.34, -6.33, -5.7, -5.06, -5.06, -5.29, -5.04, -5.26, -5.26, -4.8, -4.6, -4.6, -3.94, -3.97, -3.52, -3.35, -3.56, -3.37, -3.4, -2.92, -2.92, -2.26, -1.73, -1.63, -1.12, -0.58, 0.0, 0.0, 0.0, 0.0, 0.53, 1.2, 1.49, 2.53, 2.53, 2.84, 2.23, 0.99, 0.57, 0.0, 0.0, 0.0, 0.0, 0.7, 2.0, 0.0, -3.32, -4.61, -1.53, 0.77, 2.31, 2.89, 2.06, 0.69, 0.7, 0.68, 0.7, 0.7, 0.57, 1.14, 1.11, 1.39, 0.72, 0.0, 0.0, -1.39, -2.15, -0.71, 1.35, 1.6, 1.6, -11.44, -11.44, -11.16, -11.16, -11.16, -10.65, -10.65, -10.3, -10.3, -10.3, -10.59, -10.59, -10.01, -10.01, -10.01, -9.72, -9.46, -9.46, -9.17, -9.17, -8.87, -8.56, -8.24, -7.61, -7.33, -6.97, -6.98, -6.34, -6.33, -6.08, -5.69, -5.29, -5.29, -5.29, -5.04, -5.04, -5.04, -5.04, -4.6, -4.6, -4.63, -3.97, -4.0, -3.56, -3.37, -3.37, -3.6, -2.92, -2.92, -2.26, -2.26, -1.65, -1.14, -0.54, -0.55, 0.0, 0.0, 0.0, 0.54, 1.9, 1.9, 2.53, 2.84, 2.84, 2.48, 1.27, 0.57, 0.71, 0.0, 0.0, 0.0, 0.0, 0.0, -1.56, -3.04, -0.77, 3.13, 5.56, 5.46, 3.18, 0.0, -1.42, -2.06, -1.45, -0.7, 0.0, 0.0, 0.0, 0.0, 0.0, -0.73, -1.4, -2.39, -2.82, -1.4, 0.0, 1.94, 1.94, -11.07, -11.07, -11.07, -10.8, -10.59, -10.59, -10.3, -10.3, -10.3, -10.3, -10.35, -10.01, -10.01, -10.01, -10.01, -10.01, -9.46, -9.46, -9.46, -8.85, -8.56, -8.56, -8.24, -7.61, -7.61, -6.97, -6.71, -6.33, -6.33, -6.33, -5.69, -5.69, -5.69, -5.04, -5.29, -5.29, -5.29, -5.29, -5.29, -5.29, -4.63, -4.42, -4.0, -3.56, -3.37, -3.37, -3.37, -3.37, -3.4, -2.92, -2.96, -2.29, -1.67, -1.07, -0.55, -0.57, 0.0, 0.0, 0.54, 1.49, 1.9, 1.9, 1.6, 0.99, 0.71, 1.19, 0.71, 0.0, 0.0, 0.0, 0.0, 0.0, 0.0, 0.0, 0.0, 0.0, 1.54, 3.95, 3.83, 2.08, 0.0, -0.72, -2.06, -2.06, -1.44, -0.69, 0.0, -0.67, -0.69, -1.49, -1.4, -2.12, -3.06, -3.21, -2.06, 0.0, 1.88, 1.88, -11.07, -11.07, -11.07, -11.07, -10.59, -10.59, -10.59, -10.3, -10.3, -10.06, -10.01, -10.01, -10.01, -10.01, -10.01, -9.76, -9.13, -9.13, -9.13, -8.85, -8.85, -8.85, -7.95, -7.95, -7.61, -7.33, -6.97, -6.71, -6.33, -6.33, -6.33, -5.92, -5.69, -5.69, -5.04, -5.29, -5.29, -5.06, -5.06, -5.06, -5.06, -4.42, -4.69, -3.27, -3.4, -3.37, -3.56, -3.81, -3.6, -3.4, -2.96, -3.0, -2.16, -1.7, -1.19, -1.23, -0.59, 0.0, 0.65, 1.2, 1.49, 1.49, 1.6, 0.57, 0.71, 0.0, 0.0, 0.0, 0.0, 0.0, 0.0, 0.0, 0.96, 3.34, 2.31, -0.75, -3.15, -2.28, -2.25, -1.43, 0.0, 0.0, 0.0, 0.0, -0.59, 0.0, 0.0, 0.0, -0.61, -0.64, -1.41, -1.3, -1.3, -1.49, -0.76, 0.0, 2.73, 2.04, -10.96, -10.96, -10.7, -10.87, -10.59, -10.59, -10.59, -10.06, -10.06, -9.72, -9.72, -10.01, -10.01, -10.01, -9.76, -9.13, -9.13, -9.13, -9.13, -8.85, -8.53, -8.24, -8.24, -8.24, -7.61, -7.61, -7.33, -6.97, -6.97, -6.33, -6.33, -6.33, -6.33, -5.69, -5.69, -5.69, -5.29, -5.29, -5.06, -5.32, -5.32, -5.08, -4.69, -3.69, -2.75, -3.56, -4.24, -4.45, -4.05, -3.83, -3.42, -3.0, -2.16, -2.18, -1.73, -1.76, -1.13, 0.0, 0.65, 0.65, 1.2, 1.24, 1.6, 0.8, 0.0, 0.0, 0.0, 0.0, 0.0, 0.0, 0.0, 0.0, 0.0, 2.97, 5.51, 3.87, -2.26, -7.08, -7.93, -5.73, -2.85, 0.0, 0.0, 0.0, 0.0, 0.0, 0.0, 0.0, 0.0, 0.0, 0.0, 0.0, 0.0, 0.0, 0.0, 1.94, 4.93, 2.73, -10.96, -10.96, -10.51, -10.51, -10.51, -10.23, -10.23, -10.01, -9.72, -9.72, -9.72, -9.72, -9.72, -9.76, -9.42, -9.13, -9.13, -9.13, -8.85, -8.53, -8.53, -8.24, -8.24, -8.24, -8.24, -7.61, -7.33, -7.33, -6.97, -6.97, -6.33, -6.33, -6.33, -6.33, -5.92, -5.69, -5.69, -5.7, -5.06, -5.32, -5.08, -5.34, -5.09, -4.73, -4.03, -4.03, -4.44, -5.09, -4.46, -4.08, -3.42, -3.45, -3.04, -2.36, -2.4, -2.22, -1.13, 0.0, 0.65, 0.65, 0.65, 1.0, 1.0, 1.13, 0.0, 0.0, 0.0, 0.0, 0.0, 0.0, 0.0, 0.0, 0.0, 0.0, 5.2, 8.86, 5.51, -1.52, -6.14, -6.11, -3.37, -1.36, 0.0, 0.7, 0.71, 0.69, 0.73, 0.69, 0.71, 0.71, 0.73, 0.71, 0.0, 0.0, 1.52, 3.83, 5.94, 4.93, -10.79, -10.79, -10.79, -10.51, -10.51, -10.23, -10.01, -10.01, -10.01, -10.01, -9.72, -9.46, -9.46, -9.13, -9.13, -9.13, -9.13, -9.13, -8.53, -8.53, -8.53, -8.24, -8.24, -7.93, -7.93, -7.61, -7.33, -7.33, -7.33, -6.97, -6.97, -6.58, -6.33, -6.33, -6.33, -6.33, -5.69, -5.95, -5.7, -5.32, -5.08, -5.09, -5.36, -5.36, -5.36, -4.6, -4.71, -4.47, -4.47, -4.1, -3.85, -3.47, -3.47, -3.08, -2.84, -2.22, -1.13, 0.0, 0.0, 0.0, 0.65, 0.54, 1.6, 1.6, 1.27, 1.41, 0.0, 0.0, 0.0, 0.0, 0.71, 0.0, 0.0, -0.85, 0.0, 5.45, 7.44, 4.5, 0.0, -1.49, -1.4, -1.35, 0.0, 0.67, 0.7, 0.71, 0.69, 0.0, 0.0, 0.0, 0.0, 0.0, 0.0, 1.65, 3.79, 4.93, 4.46, 4.46, -10.41, -10.41, -10.41, -10.79, -10.51, -10.51, -10.01, -10.01, -9.66, -9.42, -9.13, -9.13, -9.13, -9.13, -9.13, -9.13, -9.13, -8.85, -8.53, -8.53, -8.53, -8.24, -7.93, -7.93, -7.93, -7.61, -7.33, -7.33, -7.33, -7.33, -6.97, -6.97, -6.58, -6.33, -6.33, -6.33, -6.08, -5.95, -5.7, -5.46, -5.08, -5.34, -5.09, -5.45, -6.0, -5.08, -4.46, -3.85, -3.84, -3.84, -3.84, -3.76, -3.49, -3.49, -3.12, -2.22, 0.0, 0.0, 0.0, 0.0, 0.0, 0.65, 0.65, 0.0, 1.27, 1.41, 1.19, 0.0, 0.57, 1.24, 1.58, 0.0, 0.0, -1.74, -2.84, -1.08, 1.54, 4.61, 6.1, 4.92, 3.51, 2.0, 1.43, 1.44, 1.39, 0.0, 0.0, 0.0, 0.0, 0.0, 0.0, 0.0, 0.0, 2.5, 3.83, 2.84, 2.84, 2.84, -10.41, -10.41, -10.41, -10.41, -10.15, -9.94, -9.94, -9.94, -9.66, -9.42, -9.42, -9.13, -9.13, -9.13, -9.13, -9.13, -8.85, -8.85, -8.53, -8.53, -8.24, -7.93, -7.93, -7.93, -7.93, -7.61, -7.61, -7.33, -7.33, -7.33, -7.33, -6.97, -6.97, -6.33, -6.33, -6.08, -6.34, -5.95, -5.7, -5.46, -5.32, -5.08, -5.09, -5.09, -5.72, -5.08, -4.03, -3.42, -3.45, -3.47, -3.22, -3.49, -3.22, -2.84, -2.44, -1.76, 0.0, 0.0, 0.0, 0.0, 0.0, 0.0, 0.65, 0.0, 1.27, 1.41, 1.19, 1.55, 1.58, 2.6, 1.74, 0.0, -0.85, -2.15, -4.46, -4.74, -2.18, 1.54, 5.45, 7.82, 9.17, 8.59, 7.08, 5.02, 2.76, 1.39, 0.0, 0.0, -0.69, -1.36, -0.76, 0.0, 1.16, 2.8, 1.4, 1.4, 1.4, 1.4, -10.41, -10.41, -10.41, -10.41, -10.41, -9.94, -9.94, -9.94, -9.94, -9.42, -9.42, -9.42, -9.13, -9.13, -9.13, -8.85, -8.85, -8.53, -8.53, -8.53, -7.93, -7.93, -7.93, -7.93, -7.93, -7.61, -7.61, -7.33, -7.33, -7.61, -7.33, -6.97, -6.97, -6.97, -6.33, -6.34, -6.34, -5.7, -5.7, -5.72, -5.32, -5.08, -5.34, -5.09, -5.09, -4.69, -4.03, -3.6, -3.2, -2.77, -2.8, -2.82, -2.36, -2.18, -1.73, -0.63, 0.0, 0.0, 0.0, 0.0, 0.0, 0.0, 0.0, 0.0, 0.0, 1.41, 1.55, 0.85, 2.53, 1.74, 1.0, 0.0, -0.76, -1.49, -3.22, -3.22, -1.63, 0.0, 3.11, 6.4, 9.17, 10.83, 10.23, 7.03, 4.86, 3.53, 2.06, 0.0, -0.69, -1.36, -1.11, 2.0, 2.6, 1.24, 1.2, 2.21, 2.21, 2.21, -10.41, -10.41, -10.41, -10.41, -10.23, -9.86, -9.86, -9.59, -9.59, -9.42, -9.42, -9.42, -9.13, -9.13, -8.85, -8.85, -8.53, -8.53, -8.53, -8.53, -7.93, -7.93, -7.93, -7.93, -7.93, -7.93, -7.61, -7.61, -7.33, -7.33, -7.33, -7.33, -6.97, -6.97, -6.33, -6.34, -6.34, -5.7, -5.98, -5.72, -5.32, -5.08, -5.08, -5.09, -4.69, -4.45, -4.03, -3.37, -3.6, -2.92, -2.96, -2.29, -2.32, -1.67, -1.14, -0.61, -0.55, -0.57, 0.0, 0.0, 0.0, 0.0, 0.0, 0.0, 0.61, 0.0, 1.41, 0.0, 0.0, 0.54, 0.0, 0.0, -0.76, -0.79, -0.88, -0.81, 0.0, 0.0, 1.5, 3.85, 7.44, 9.55, 8.6, 7.13, 6.24, 4.94, 3.47, 2.15, 0.0, -1.05, 1.13, 2.12, 1.86, 1.24, 2.23, 3.07, 3.07, 3.07, -10.04, -10.04, -10.04, -9.86, -9.86, -9.86, -9.86, -9.86, -9.59, -9.37, -9.08, -9.08, -8.82, -8.53, -8.53, -8.53, -8.53, -8.53, -8.53, -8.53, -7.93, -7.93, -7.93, -7.93, -7.93, -7.93, -7.61, -7.61, -7.33, -7.33, -7.33, -7.33, -6.97, -6.71, -6.98, -6.34, -6.34, -5.7, -5.72, -5.72, -5.08, -5.08, -5.08, -4.69, -4.69, -4.03, -4.03, -3.37, -3.37, -2.89, -2.92, -2.26, -2.29, -1.76, -1.14, -1.16, -0.61, -0.55, 0.0, 0.0, 0.0, 0.0, 0.0, 0.0, 0.0, 0.0, 0.0, 0.0, 0.0, 0.0, -0.54, -0.85, -0.76, -0.79, 0.0, 0.0, 0.0, 0.0, 1.58, 3.09, 5.52, 6.47, 7.11, 7.91, 7.88, 5.63, 3.46, 2.12, 0.78, 0.0, 0.63, 1.34, 1.58, 1.86, 3.07, 4.47, 4.47, 4.47, -10.04, -10.04, -9.86, -9.86, -9.86, -9.86, -9.86, -9.86, -9.59, -9.37, -9.37, -9.08, -8.82, -8.82, -8.53, -8.53, -8.53, -8.53, -8.53, -8.24, -7.93, -7.93, -7.93, -7.93, -7.93, -7.61, -7.61, -7.61, -7.33, -7.33, -7.33, -7.33, -7.26, -6.98, -6.98, -6.34, -6.08, -5.98, -5.72, -5.32, -5.08, -5.08, -5.08, -4.69, -4.69, -4.03, -4.03, -3.56, -3.37, -3.37, -2.92, -2.92, -2.26, -2.29, -1.67, -1.16, -1.07, -0.61, -0.55, 0.0, 0.0, 0.0, 0.0, 0.0, 0.0, 0.0, 0.0, 0.0, 0.0, 0.0, 0.0, 0.0, -0.79, -0.73, 0.0, 0.0, 0.0, 0.0, 2.35, 3.2, 3.15, 3.82, 6.89, 9.92, 9.34, 6.14, 3.4, 1.84, 0.57, -0.0, -0.0, 0.45, 1.7, 2.68, 3.58, 4.87, 4.87, 4.87, -9.86, -9.86, -9.86, -9.86, -9.5, -9.5, -9.86, -9.86, -9.86, -9.37, -9.37, -9.37, -9.08, -8.82, -8.82, -8.53, -8.53, -8.53, -8.24, -7.93, -7.93, -7.93, -7.93, -7.93, -7.61, -7.61, -7.61, -7.61, -7.61, -7.33, -7.61, -7.26, -6.98, -6.98, -6.34, -6.34, -6.08, -5.98, -5.72, -5.32, -5.08, -5.08, -4.69, -4.69, -4.45, -4.03, -4.03, -4.03, -3.37, -3.37, -2.73, -2.92, -2.26, -2.26, -1.8, -1.14, -1.16, -0.54, -0.61, -0.55, 0.0, 0.0, 0.0, 0.0, 0.0, 0.0, 0.0, 0.79, 0.88, 0.88, 0.7, 0.0, 0.0, -0.73, -0.81, 0.0, 0.0, 0.73, 1.47, 2.2, 2.26, 3.06, 6.09, 8.72, 7.69, 5.68, 2.8, 2.68, 1.79, 0.6, 0.95, 1.79, 2.68, 3.13, 4.41, 5.32, 5.32, 5.32, -9.86, -9.86, -9.86, -9.5, -9.5, -9.3, -9.3, -9.3, -9.66, -9.37, -9.37, -9.37, -9.37, -8.82, -8.82, -8.53, -8.24, -8.24, -7.93, -7.93, -7.93, -7.93, -7.61, -7.61, -7.61, -7.61, -7.61, -7.61, -7.61, -7.61, -7.26, -6.98, -6.98, -6.7, -6.34, -6.35, -5.98, -5.72, -5.72, -5.32, -5.08, -5.08, -4.44, -4.69, -4.69, -4.45, -4.03, -4.03, -4.03, -3.37, -3.6, -2.92, -2.75, -2.29, -1.65, -1.8, -1.14, -1.16, -0.54, -0.61, -0.55, 0.0, 0.0, 0.0, 0.0, 0.0, 0.0, 0.0, 0.87, 0.7, 0.7, 0.0, 0.0, -0.73, -0.73, 0.0, 0.0, 0.0, 0.73, 0.76, 1.52, 1.63, 3.27, 4.8, 4.71, 1.4, 2.4, 2.6, 1.9, 2.4, 3.51, 4.41, 4.87, 5.31, 5.59, 6.07, 6.07, 6.07, -9.86, -9.86, -9.5, -9.5, -9.3, -9.3, -9.3, -9.3, -9.3, -9.02, -9.02, -9.02, -9.37, -9.12, -8.82, -8.82, -8.24, -7.93, -7.93, -7.93, -7.93, -7.93, -7.61, -7.61, -7.61, -7.61, -7.61, -7.61, -7.61, -6.98, -6.98, -6.98, -6.7, -6.34, -6.35, -6.35, -5.72, -5.72, -5.72, -5.32, -5.08, -5.08, -4.66, -4.69, -4.69, -4.45, -4.03, -4.03, -4.03, -3.37, -3.6, -2.92, -2.92, -2.44, -2.29, -1.65, -1.67, -1.14, -1.16, -0.54, -0.61, -0.55, 0.0, 0.0, 0.0, 0.0, 0.0, 0.0, 0.0, 0.0, 0.0, 0.7, 0.0, 0.0, -0.79, -0.88, -0.79, 0.0, 0.0, 0.0, 0.76, 0.82, 1.6, 1.6, 0.0, 0.0, 1.24, 1.79, 1.88, 4.11, 6.13, 6.67, 4.87, 6.07, 6.28, 6.55, 6.55, 6.55, -9.86, -9.86, -9.5, -9.3, -9.3, -9.3, -9.3, -9.3, -9.3, -9.3, -9.02, -9.02, -9.02, -8.78, -8.5, -8.5, -8.22, -7.93, -7.93, -7.93, -7.93, -7.93, -7.61, -7.61, -7.61, -7.61, -7.61, -7.61, -6.98, -6.98, -6.98, -6.7, -6.34, -6.08, -6.35, -5.72, -5.72, -5.72, -5.72, -5.32, -5.32, -5.08, -5.08, -4.66, -4.44, -4.69, -4.69, -4.03, -4.03, -3.81, -3.6, -3.4, -2.92, -2.26, -2.29, -1.65, -1.8, -1.14, -1.14, -0.59, -0.54, -0.55, -0.63, -0.57, -0.59, 0.0, 0.0, 0.0, 0.0, 0.0, 0.0, 0.0, 0.0, 0.0, -0.87, -0.79, -0.79, -0.79, -0.73, 0.0, 0.0, 0.0, 0.82, 0.0, -0.72, 0.0, 0.71, 1.79, 2.53, 4.36, 5.36, 5.94, 3.82, 5.16, 5.86, 6.36, 6.36, 6.36, -9.5, -9.5, -9.5, -9.3, -9.3, -9.3, -9.3, -9.3, -9.3, -9.3, -9.02, -9.02, -8.78, -8.78, -8.78, -8.5, -8.5, -8.22, -7.93, -7.93, -7.93, -7.93, -7.61, -7.61, -7.61, -7.61, -7.61, -6.98, -6.98, -6.98, -6.98, -6.34, -6.34, -6.35, -5.98, -5.72, -5.72, -5.72, -5.72, -5.32, -5.32, -5.08, -5.08, -4.66, -4.66, -4.44, -4.44, -4.24, -4.03, -3.81, -3.6, -3.4, -2.92, -2.26, -2.29, -1.76, -1.65, -1.23, -1.14, -1.14, -0.59, -0.61, -0.55, -0.57, -0.59, -0.59, -0.53, 0.0, 0.0, 0.0, 0.0, -0.88, 0.0, 0.0, 0.71, 0.0, -0.79, -0.79, -1.7, -1.7, -0.88, 0.0, 0.78, 0.77, 1.42, 0.0, 0.6, 2.6, 4.46, 4.36, 5.09, 4.66, 3.6, 4.93, 5.86, 5.86, 5.86, 5.86, -9.5, -9.5, -9.5, -9.3, -9.3, -9.3, -9.3, -9.3, -9.3, -9.3, -9.3, -8.78, -8.78, -8.78, -8.78, -8.78, -8.5, -8.22, -8.22, -7.93, -7.93, -7.61, -7.61, -7.61, -7.61, -7.61, -7.32, -6.98, -6.98, -6.98, -6.34, -6.34, -6.35, -6.35, -5.72, -5.72, -5.72, -5.72, -5.72, -5.32, -5.32, -5.32, -5.08, -5.08, -4.66, -4.66, -4.44, -4.0, -4.03, -4.03, -3.37, -3.37, -2.92, -2.26, -2.26, -1.63, -1.76, -1.12, -1.12, -1.14, -1.16, -0.54, -0.61, -0.55, -0.57, -0.51, -0.59, -0.61, 0.0, -0.54, -0.71, 0.0, 0.0, 0.0, 0.87, 0.79, 0.0, -0.88, -1.83, -2.53, -1.83, -0.96, 0.79, 3.07, 3.82, 0.76, 1.34, 4.8, 4.46, 4.43, 4.43, 4.73, 5.05, 6.0, 5.6, 4.93, 4.93, 4.93, -9.5, -9.5, -9.3, -9.3, -9.3, -9.3, -9.3, -9.3, -9.3, -9.08, -9.08, -8.78, -8.78, -8.78, -8.78, -8.78, -8.78, -8.5, -8.22, -8.22, -7.93, -7.61, -7.61, -7.61, -7.32, -7.32, -6.98, -6.98, -6.98, -6.7, -6.34, -6.08, -6.35, -5.98, -5.72, -5.72, -5.72, -5.72, -5.32, -5.32, -5.32, -5.32, -5.08, -5.08, -4.66, -4.66, -4.66, -4.0, -4.0, -4.03, -3.56, -3.37, -2.73, -2.4, -2.26, -1.73, -1.63, -1.76, -1.12, -1.14, -1.14, -1.16, -1.19, -1.08, -1.23, -1.11, -1.11, -1.11, -1.11, -0.65, -0.71, 0.0, 0.0, 0.0, 0.0, 0.0, 0.0, -0.88, -2.95, -2.95, -2.68, -1.8, 0.0, 1.65, 2.97, 0.74, 1.86, 5.16, 4.4, 4.12, 4.36, 6.35, 7.28, 6.0, 4.8, 5.34, 5.34, 5.34, -9.5, -9.5, -9.3, -9.3, -9.3, -9.3, -9.3, -8.94, -8.73, -8.73, -8.73, -8.78, -8.78, -8.78, -8.78, -8.78, -8.78, -8.5, -8.22, -8.22, -8.22, -7.61, -7.61, -7.32, -7.32, -6.98, -6.98, -6.98, -6.7, -6.34, -6.34, -6.35, -6.35, -5.98, -5.72, -5.72, -5.72, -5.72, -5.32, -5.32, -5.32, -5.32, -5.08, -5.08, -4.66, -4.66, -4.66, -4.0, -4.0, -4.0, -3.35, -2.89, -2.89, -2.23, -2.23, -2.26, -1.73, -1.63, -1.76, -1.12, -1.14, -1.14, -1.16, -1.19, -1.08, -1.23, -1.23, -1.76, -1.76, -1.49, -1.24, -0.71, -0.71, 0.0, 0.0, 0.0, -0.88, -0.88, -2.68, -2.68, -2.84, -2.41, -0.87, 0.0, 0.77, 0.0, 1.27, 3.58, 4.4, 4.11, 4.94, 6.28, 6.35, 5.43, 4.46, 5.43, 5.43, 5.43, -9.3, -9.3, -9.3, -9.3, -9.3, -9.3, -8.94, -8.73, -8.73, -8.73, -8.73, -8.73, -8.45, -8.78, -8.78, -8.78, -8.78, -8.52, -8.22, -8.22, -8.22, -8.22, -7.61, -7.32, -6.98, -6.98, -6.98, -6.7, -6.7, -6.34, -6.35, -6.35, -5.98, -5.98, -5.72, -5.72, -5.72, -5.72, -5.32, -5.32, -5.32, -5.32, -5.08, -4.66, -4.66, -4.66, -4.66, -4.0, -4.0, -4.0, -3.35, -2.86, -2.71, -2.37, -2.23, -2.23, -1.73, -1.73, -1.76, -1.12, -1.12, -1.14, -1.14, -1.16, -1.07, -1.73, -1.73, -1.73, -2.2, -1.49, -1.49, -1.24, -0.71, -0.71, -1.49, -1.83, -1.66, -1.49, -2.68, -2.68, -1.8, -2.0, -1.55, -1.52, -0.78, 0.0, 0.0, 2.12, 3.84, 4.02, 4.14, 4.87, 4.29, 4.46, 4.84, 4.84, 4.84, 4.84, -9.3, -9.3, -9.3, -9.3, -9.3, -8.94, -8.73, -8.73, -8.73, -8.73, -8.73, -8.45, -8.45, -8.45, -8.45, -8.45, -8.19, -8.19, -7.9, -8.22, -8.22, -8.22, -7.6, -7.32, -6.98, -6.98, -6.7, -6.7, -6.34, -6.63, -6.35, -6.35, -5.98, -5.98, -5.72, -5.72, -5.72, -5.32, -5.32, -5.32, -5.32, -5.32, -5.08, -4.66, -4.66, -4.66, -4.0, -4.0, -4.0, -3.52, -3.35, -2.86, -2.86, -2.21, -2.37, -2.23, -2.23, -2.26, -1.73, -1.76, -1.12, -1.12, -1.14, -1.14, -1.7, -1.7, -1.7, -2.4, -2.4, -2.4, -2.86, -1.9, -1.58, -1.24, -1.4, -1.8, -1.8, -0.87, -1.55, -1.66, -1.66, -1.55, -1.72, -1.55, -1.56, -0.75, -0.75, 0.65, 1.86, 2.66, 3.47, 3.4, 4.22, 5.06, 5.09, 4.84, 4.84, 4.84, -9.58, -9.58, -9.3, -9.3, -8.94, -8.94, -8.73, -8.73, -8.73, -8.73, -8.73, -8.45, -8.45, -8.45, -8.45, -8.19, -8.19, -8.19, -7.9, -7.9, -7.9, -7.9, -7.6, -7.6, -6.98, -6.7, -6.98, -6.98, -6.63, -6.35, -6.35, -6.35, -5.98, -5.98, -5.72, -5.72, -5.72, -5.32, -5.32, -5.32, -5.32, -5.08, -4.66, -4.66, -4.66, -4.2, -4.0, -4.0, -4.0, -4.0, -3.52, -3.35, -2.86, -2.21, -2.21, -2.21, -2.37, -2.23, -1.73, -1.63, -1.76, -1.76, -1.65, -1.8, -1.67, -1.67, -1.84, -2.18, -2.4, -2.18, -2.84, -2.21, -1.24, -2.98, -1.49, -1.4, -1.49, -0.88, -0.88, -0.81, -0.81, -1.6, -2.64, -2.26, -2.31, -0.8, 0.0, 0.0, 0.65, 1.34, 2.15, 4.71, 6.01, 6.01, 5.72, 5.69, 5.69, 5.69, -9.21, -9.21, -8.94, -8.94, -8.94, -8.73, -8.73, -8.73, -8.73, -8.73, -8.73, -8.45, -8.45, -8.45, -8.45, -8.19, -8.19, -8.19, -8.19, -7.9, -7.9, -7.9, -7.9, -7.6, -6.98, -6.98, -6.98, -6.63, -6.35, -6.35, -6.35, -6.35, -5.98, -5.98, -5.72, -5.72, -5.72, -5.32, -5.32, -5.06, -5.32, -4.66, -4.66, -4.66, -4.66, -4.2, -4.0, -4.0, -4.0, -4.0, -3.35, -2.86, -2.86, -2.33, -2.33, -2.33, -2.21, -1.69, -1.71, -1.73, -1.73, -1.63, -1.76, -1.65, -1.8, -1.8, -2.32, -2.16, -2.36, -2.36, -2.82, -2.84, -2.86, -3.49, -1.49, -2.4, -1.7, -0.88, -0.81, -0.81, -1.7, -2.47, -3.33, -3.09, -2.28, -0.74, 0.0, 0.73, 1.56, 1.47, 2.98, 4.02, 6.8, 6.9, 6.25, 6.0, 6.0, 6.0, -9.21, -9.21, -8.94, -8.94, -8.94, -8.73, -8.73, -8.73, -8.73, -8.73, -8.73, -8.45, -8.45, -8.45, -8.45, -8.19, -8.19, -8.19, -8.19, -7.9, -7.9, -7.9, -7.9, -7.6, -6.98, -6.98, -6.98, -6.63, -6.35, -6.35, -6.35, -6.35, -5.98, -5.98, -5.72, -5.72, -5.72, -5.32, -5.32, -5.06, -5.32, -4.66, -4.66, -4.66, -4.66, -4.2, -4.0, -4.0, -4.0, -4.0, -3.35, -2.86, -2.86, -2.33, -2.33, -2.33, -2.21, -1.69, -1.71, -1.73, -1.73, -1.63, -1.76, -1.65, -1.8, -1.8, -2.32, -2.16, -2.36, -2.36, -2.82, -2.84, -2.86, -3.49, -1.49, -2.4, -0.88, -0.88, -0.81, -0.81, -1.7, -2.47, -3.33, -3.2, -2.44, -0.79, 0.0, 1.54, 2.28, 3.11, 3.82, 5.38, 6.21, 6.51, 5.86, 5.75, 5.75, 5.75]}]